Time,TemperatureF,DewpointF,PressureIn,WindDirection,WindDirectionDegrees,WindSpeedMPH,WindSpeedGustMPH,Humidity,HourlyPrecipIn,Conditions,Clouds,dailyrainin,SoftwareType,DateUTC
2013-02-10 00:00:00,71.7,60.0,30.19,ESE,118,16.7,17.9,66,0.00,,,0.13,TxWx,2013-02-10 05:00:00,
2013-02-10 00:05:00,71.7,60.0,30.19,East,96,14.9,15.5,65,0.00,,,0.00,TxWx,2013-02-10 05:05:00,
2013-02-10 00:06:00,71.7,60.0,30.19,East,96,16.7,16.7,66,0.00,,,0.00,TxWx,2013-02-10 05:06:00,
2013-02-10 00:08:00,71.7,60.0,30.19,East,96,16.1,18.6,66,0.00,,,0.01,TxWx,2013-02-10 05:08:00,
2013-02-10 00:10:00,71.7,60.0,30.19,East,96,16.7,16.7,66,0.00,,,0.02,TxWx,2013-02-10 05:10:00,
2013-02-10 00:11:00,71.8,60.0,30.20,East,96,13.6,15.5,67,0.00,,,0.02,TxWx,2013-02-10 05:11:00,
2013-02-10 00:12:00,71.8,60.0,30.19,East,96,15.5,15.5,66,0.12,,,0.02,TxWx,2013-02-10 05:12:00,
2013-02-10 00:13:00,71.8,60.0,30.19,East,96,14.9,14.9,66,0.12,,,0.02,TxWx,2013-02-10 05:13:00,
2013-02-10 00:16:00,71.5,59.0,30.19,ENE,73,12.4,17.3,65,0.12,,,0.02,TxWx,2013-02-10 05:16:00,
2013-02-10 00:17:00,71.5,59.0,30.19,ENE,73,16.1,16.1,64,0.12,,,0.02,TxWx,2013-02-10 05:17:00,
2013-02-10 00:20:00,71.7,60.0,30.20,ENE,73,12.4,14.2,65,0.12,,,0.02,TxWx,2013-02-10 05:20:00,
2013-02-10 00:21:00,71.5,58.0,30.20,East,96,14.9,16.1,64,0.12,,,0.02,TxWx,2013-02-10 05:21:00,
2013-02-10 00:25:00,71.6,60.0,30.19,ENE,73,10.5,13.0,66,0.00,,,0.02,TxWx,2013-02-10 05:25:00,
2013-02-10 00:28:00,71.5,60.0,30.20,ESE,118,14.9,18.6,66,0.00,,,0.02,TxWx,2013-02-10 05:28:00,
2013-02-10 00:31:00,71.8,60.0,30.20,East,96,13.6,13.6,66,0.00,,,0.02,TxWx,2013-02-10 05:31:00,
2013-02-10 00:32:00,71.8,60.0,30.20,East,96,11.8,11.8,67,0.00,,,0.02,TxWx,2013-02-10 05:32:00,
2013-02-10 00:33:00,71.8,61.0,30.20,East,96,16.1,16.7,68,0.00,,,0.02,TxWx,2013-02-10 05:33:00,
2013-02-10 00:37:00,71.6,60.0,30.20,East,96,14.9,15.5,66,0.00,,,0.02,TxWx,2013-02-10 05:37:00,
2013-02-10 00:38:00,72.0,60.0,30.20,East,96,12.4,14.2,67,0.00,,,0.02,TxWx,2013-02-10 05:38:00,
2013-02-10 00:39:00,71.8,60.0,30.20,East,96,14.9,17.3,67,0.00,,,0.02,TxWx,2013-02-10 05:39:00,
2013-02-10 00:43:00,71.7,60.0,30.20,East,96,14.2,14.9,67,0.00,,,0.02,TxWx,2013-02-10 05:43:00,
2013-02-10 00:44:00,71.6,60.0,30.20,East,96,13.6,14.9,66,0.00,,,0.02,TxWx,2013-02-10 05:44:00,
2013-02-10 00:45:00,71.8,60.0,30.20,East,96,16.7,17.3,67,0.00,,,0.02,TxWx,2013-02-10 05:45:00,
2013-02-10 00:49:00,71.6,60.0,30.20,East,96,16.1,16.1,67,0.00,,,0.02,TxWx,2013-02-10 05:49:00,
2013-02-10 00:50:00,71.8,60.0,30.20,East,96,13.6,13.6,67,0.00,,,0.02,TxWx,2013-02-10 05:50:00,
2013-02-10 00:52:00,71.8,61.0,30.20,ESE,118,13.0,13.0,68,0.00,,,0.02,TxWx,2013-02-10 05:52:00,
2013-02-10 00:54:00,71.7,60.0,30.20,East,96,16.1,16.1,67,0.00,,,0.02,TxWx,2013-02-10 05:54:00,
2013-02-10 00:55:00,71.7,60.0,30.20,ESE,118,14.2,15.5,67,0.00,,,0.02,TxWx,2013-02-10 05:55:00,
2013-02-10 00:58:00,71.4,59.0,30.19,East,96,16.1,16.1,66,0.00,,,0.02,TxWx,2013-02-10 05:58:00,
2013-02-10 01:00:00,71.4,60.0,30.19,East,96,21.0,21.7,68,0.00,,,0.02,TxWx,2013-02-10 06:00:00,
2013-02-10 01:01:00,71.6,60.0,30.19,SE,141,17.3,18.6,67,0.00,,,0.02,TxWx,2013-02-10 06:01:00,
2013-02-10 01:04:00,71.5,59.0,30.20,East,96,16.1,17.3,66,0.00,,,0.02,TxWx,2013-02-10 06:04:00,
2013-02-10 01:06:00,71.6,60.0,30.19,East,96,16.7,17.3,67,0.00,,,0.02,TxWx,2013-02-10 06:06:00,
2013-02-10 01:07:00,71.7,61.0,30.19,SE,141,14.9,16.7,68,0.00,,,0.02,TxWx,2013-02-10 06:07:00,
2013-02-10 01:10:00,71.5,60.0,30.19,East,96,19.2,19.2,66,0.00,,,0.02,TxWx,2013-02-10 06:10:00,
2013-02-10 01:13:00,71.6,61.0,30.20,East,96,17.9,17.9,68,0.12,,,0.04,TxWx,2013-02-10 06:13:00,
2013-02-10 01:15:00,71.7,60.0,30.20,ESE,118,19.8,19.8,67,0.12,,,0.04,TxWx,2013-02-10 06:15:00,
2013-02-10 01:16:00,71.5,60.0,30.19,ESE,118,17.3,17.3,67,0.12,,,0.04,TxWx,2013-02-10 06:16:00,
2013-02-10 01:19:00,71.4,59.0,30.20,East,96,16.7,17.9,65,0.12,,,0.04,TxWx,2013-02-10 06:19:00,
2013-02-10 01:22:00,71.8,60.0,30.19,East,96,18.6,18.6,67,0.00,,,0.04,TxWx,2013-02-10 06:22:00,
2013-02-10 01:24:00,71.5,60.0,30.20,ESE,118,16.7,16.7,67,0.00,,,0.04,TxWx,2013-02-10 06:24:00,
2013-02-10 01:25:00,71.5,60.0,30.20,East,96,16.1,16.7,66,0.00,,,0.04,TxWx,2013-02-10 06:25:00,
2013-02-10 01:26:00,71.5,60.0,30.20,East,96,17.3,17.3,67,0.00,,,0.04,TxWx,2013-02-10 06:26:00,
2013-02-10 01:27:00,71.7,61.0,30.19,East,96,17.3,17.3,68,0.00,,,0.04,TxWx,2013-02-10 06:27:00,
2013-02-10 01:30:00,71.8,60.0,30.19,East,96,13.0,14.9,67,0.00,,,0.04,TxWx,2013-02-10 06:30:00,
2013-02-10 01:31:00,71.8,61.0,30.19,East,96,16.1,16.1,68,0.00,,,0.04,TxWx,2013-02-10 06:31:00,
2013-02-10 01:34:00,71.5,60.0,30.19,East,96,16.1,16.1,66,0.00,,,0.04,TxWx,2013-02-10 06:34:00,
2013-02-10 01:35:00,72.1,61.0,30.19,East,96,17.3,17.3,69,0.00,,,0.04,TxWx,2013-02-10 06:35:00,
2013-02-10 01:37:00,71.5,59.0,30.19,East,96,17.3,17.9,65,0.00,,,0.04,TxWx,2013-02-10 06:37:00,
2013-02-10 01:39:00,71.6,59.0,30.19,ESE,118,13.6,13.6,65,0.00,,,0.04,TxWx,2013-02-10 06:39:00,
2013-02-10 01:40:00,71.6,60.0,30.19,ESE,118,13.0,13.0,66,0.00,,,0.04,TxWx,2013-02-10 06:40:00,
2013-02-10 01:44:00,71.6,60.0,30.19,East,96,18.6,18.6,66,0.00,,,0.04,TxWx,2013-02-10 06:44:00,
2013-02-10 01:45:00,71.7,60.0,30.19,East,96,14.2,17.3,66,0.00,,,0.04,TxWx,2013-02-10 06:45:00,
2013-02-10 01:46:00,71.8,60.0,30.19,ESE,118,13.6,14.2,66,0.00,,,0.04,TxWx,2013-02-10 06:46:00,
2013-02-10 01:47:00,71.7,60.0,30.19,East,96,13.0,13.0,66,0.00,,,0.04,TxWx,2013-02-10 06:47:00,
2013-02-10 01:50:00,71.7,59.0,30.19,East,96,15.5,15.5,65,0.00,,,0.04,TxWx,2013-02-10 06:50:00,
2013-02-10 01:51:00,71.8,60.0,30.19,East,96,11.8,12.4,66,0.00,,,0.04,TxWx,2013-02-10 06:51:00,
2013-02-10 01:52:00,71.7,60.0,30.19,ESE,118,11.8,11.8,66,0.00,,,0.04,TxWx,2013-02-10 06:52:00,
2013-02-10 01:55:00,71.7,60.0,30.19,East,96,9.9,11.1,66,0.00,,,0.04,TxWx,2013-02-10 06:55:00,
2013-02-10 01:56:00,71.7,60.0,30.19,East,96,15.5,16.7,67,0.00,,,0.04,TxWx,2013-02-10 06:56:00,
2013-02-10 01:58:00,71.6,60.0,30.19,ESE,118,13.6,16.1,66,0.00,,,0.04,TxWx,2013-02-10 06:58:00,
2013-02-10 02:02:00,71.7,60.0,30.19,East,96,11.1,11.1,67,0.00,,,0.04,TxWx,2013-02-10 07:02:00,
2013-02-10 02:03:00,71.8,61.0,30.19,East,96,15.5,15.5,68,0.00,,,0.04,TxWx,2013-02-10 07:03:00,
2013-02-10 02:04:00,71.4,60.0,30.19,East,96,16.7,16.7,68,0.00,,,0.04,TxWx,2013-02-10 07:04:00,
2013-02-10 02:07:00,71.5,60.0,30.19,East,96,17.3,19.2,67,0.00,,,0.04,TxWx,2013-02-10 07:07:00,
2013-02-10 02:08:00,71.6,60.0,30.19,ESE,118,13.6,14.2,67,0.00,,,0.04,TxWx,2013-02-10 07:08:00,
2013-02-10 02:09:00,71.5,60.0,30.19,East,96,16.1,16.1,67,0.00,,,0.04,TxWx,2013-02-10 07:09:00,
2013-02-10 02:10:00,71.5,60.0,30.19,East,96,12.4,14.9,67,0.00,,,0.04,TxWx,2013-02-10 07:10:00,
2013-02-10 02:14:00,71.5,60.0,30.19,East,96,14.2,14.2,67,0.00,,,0.04,TxWx,2013-02-10 07:14:00,
2013-02-10 02:16:00,71.7,60.0,30.19,East,96,11.8,12.4,67,0.00,,,0.04,TxWx,2013-02-10 07:16:00,
2013-02-10 02:18:00,71.6,61.0,30.19,East,96,16.7,17.3,68,0.00,,,0.04,TxWx,2013-02-10 07:18:00,
2013-02-10 02:19:00,71.5,60.0,30.19,East,96,16.1,16.1,67,0.00,,,0.04,TxWx,2013-02-10 07:19:00,
2013-02-10 02:23:00,71.8,61.0,30.19,East,96,14.2,14.2,68,0.00,,,0.04,TxWx,2013-02-10 07:23:00,
2013-02-10 02:24:00,71.4,59.0,30.19,ESE,118,17.9,20.4,66,0.00,,,0.04,TxWx,2013-02-10 07:24:00,
2013-02-10 02:25:00,71.5,59.0,30.19,East,96,17.3,17.3,66,0.00,,,0.04,TxWx,2013-02-10 07:25:00,
2013-02-10 02:28:00,71.4,59.0,30.19,ESE,118,13.6,16.1,67,0.00,,,0.04,TxWx,2013-02-10 07:28:00,
2013-02-10 02:30:00,72.0,62.0,30.19,East,96,21.7,21.7,70,0.00,,,0.04,TxWx,2013-02-10 07:30:00,
2013-02-10 02:33:00,71.7,62.0,30.19,East,96,14.9,17.3,72,0.00,,,0.04,TxWx,2013-02-10 07:33:00,
2013-02-10 02:34:00,71.7,62.0,30.19,East,96,16.1,19.8,72,0.00,,,0.04,TxWx,2013-02-10 07:34:00,
2013-02-10 02:35:00,71.5,61.0,30.19,East,96,11.1,13.0,71,0.00,,,0.04,TxWx,2013-02-10 07:35:00,
2013-02-10 02:36:00,71.3,61.0,30.18,East,96,17.9,17.9,72,0.00,,,0.04,TxWx,2013-02-10 07:36:00,
2013-02-10 02:39:00,71.3,62.0,30.18,ESE,118,16.1,21.7,73,0.00,,,0.04,TxWx,2013-02-10 07:39:00,
2013-02-10 02:40:00,71.6,63.0,30.19,East,96,13.0,17.3,73,0.00,,,0.04,TxWx,2013-02-10 07:40:00,
2013-02-10 02:41:00,71.3,61.0,30.19,ENE,73,15.5,15.5,72,0.00,,,0.04,TxWx,2013-02-10 07:41:00,
2013-02-10 02:45:00,71.3,62.0,30.19,ESE,118,17.3,18.6,73,0.00,,,0.04,TxWx,2013-02-10 07:45:00,
2013-02-10 02:47:00,71.5,62.0,30.19,East,96,14.9,15.5,73,0.00,,,0.04,TxWx,2013-02-10 07:47:00,
2013-02-10 02:48:00,71.5,62.0,30.19,East,96,14.9,19.8,73,0.00,,,0.04,TxWx,2013-02-10 07:48:00,
2013-02-10 02:50:00,71.1,62.0,30.19,East,96,16.1,19.2,73,0.00,,,0.05,TxWx,2013-02-10 07:50:00,
2013-02-10 02:53:00,70.9,61.0,30.19,East,96,17.3,17.3,72,0.06,,,0.05,TxWx,2013-02-10 07:53:00,
2013-02-10 02:54:00,70.9,61.0,30.19,East,96,16.1,16.1,72,0.06,,,0.05,TxWx,2013-02-10 07:54:00,
2013-02-10 02:56:00,71.0,62.0,30.18,East,96,16.7,17.3,73,0.06,,,0.05,TxWx,2013-02-10 07:56:00,
2013-02-10 02:58:00,71.0,61.0,30.18,East,96,11.8,15.5,72,0.06,,,0.05,TxWx,2013-02-10 07:58:00,
2013-02-10 03:00:00,71.2,61.0,30.18,East,96,17.3,17.3,72,0.06,,,0.05,TxWx,2013-02-10 08:00:00,
2013-02-10 03:01:00,71.2,62.0,30.18,East,96,19.8,19.8,73,0.06,,,0.05,TxWx,2013-02-10 08:01:00,
2013-02-10 03:03:00,71.2,62.0,30.18,East,96,21.7,21.7,73,0.00,,,0.06,TxWx,2013-02-10 08:03:00,
2013-02-10 03:06:00,70.9,61.0,30.18,ENE,73,14.2,16.7,72,0.00,,,0.07,TxWx,2013-02-10 08:06:00,
2013-02-10 03:07:00,71.0,61.0,30.18,ENE,73,17.9,17.9,72,0.00,,,0.07,TxWx,2013-02-10 08:07:00,
2013-02-10 03:08:00,71.1,62.0,30.18,NE,51,16.1,16.1,73,0.00,,,0.07,TxWx,2013-02-10 08:08:00,
2013-02-10 03:10:00,71.1,62.0,30.18,East,96,14.9,16.1,73,0.00,,,0.07,TxWx,2013-02-10 08:10:00,
2013-02-10 03:12:00,70.9,62.0,30.18,East,96,16.1,16.7,73,0.12,,,0.07,TxWx,2013-02-10 08:12:00,
2013-02-10 03:13:00,71.4,62.0,30.18,East,96,16.1,16.1,74,0.12,,,0.07,TxWx,2013-02-10 08:13:00,
2013-02-10 03:15:00,71.5,62.0,30.18,ESE,118,13.6,15.5,74,0.12,,,0.07,TxWx,2013-02-10 08:15:00,
2013-02-10 03:17:00,71.2,62.0,30.18,East,96,16.7,16.7,74,0.12,,,0.07,TxWx,2013-02-10 08:17:00,
2013-02-10 03:20:00,71.6,63.0,30.18,ENE,73,11.8,14.9,74,0.12,,,0.07,TxWx,2013-02-10 08:20:00,
2013-02-10 03:21:00,71.7,63.0,30.18,East,96,11.1,11.1,74,0.12,,,0.07,TxWx,2013-02-10 08:21:00,
2013-02-10 03:22:00,71.3,62.0,30.18,ESE,118,21.0,23.5,75,0.00,,,0.08,TxWx,2013-02-10 08:22:00,
2013-02-10 03:26:00,71.0,62.0,30.18,ENE,73,17.9,17.9,75,0.00,,,0.08,TxWx,2013-02-10 08:26:00,
2013-02-10 03:27:00,71.2,63.0,30.18,East,96,16.1,17.3,76,0.00,,,0.08,TxWx,2013-02-10 08:27:00,
2013-02-10 03:28:00,71.1,62.0,30.18,East,96,18.6,19.2,75,0.00,,,0.08,TxWx,2013-02-10 08:28:00,
2013-02-10 03:31:00,70.9,62.0,30.18,ESE,118,18.6,21.0,74,0.00,,,0.09,TxWx,2013-02-10 08:31:00,
2013-02-10 03:32:00,71.1,62.0,30.18,East,96,19.8,20.4,75,0.12,,,0.09,TxWx,2013-02-10 08:32:00,
2013-02-10 03:33:00,71.0,62.0,30.19,ESE,118,18.6,20.4,74,0.12,,,0.09,TxWx,2013-02-10 08:33:00,
2013-02-10 03:35:00,70.6,62.0,30.18,ESE,118,22.3,22.3,74,0.12,,,0.09,TxWx,2013-02-10 08:35:00,
2013-02-10 03:37:00,71.5,63.0,30.18,East,96,19.2,19.2,76,0.12,,,0.09,TxWx,2013-02-10 08:37:00,
2013-02-10 03:38:00,70.9,62.0,30.18,East,96,25.4,25.4,75,0.12,,,0.09,TxWx,2013-02-10 08:38:00,
2013-02-10 03:39:00,71.0,62.0,30.18,East,96,22.3,22.3,75,0.12,,,0.09,TxWx,2013-02-10 08:39:00,
2013-02-10 03:42:00,70.9,62.0,30.19,ESE,118,19.2,21.0,74,0.00,,,0.09,TxWx,2013-02-10 08:42:00,
2013-02-10 03:43:00,70.6,63.0,30.19,ESE,118,15.5,17.9,76,0.00,,,0.09,TxWx,2013-02-10 08:43:00,
2013-02-10 03:45:00,70.6,63.0,30.19,East,96,17.3,17.3,77,0.00,,,0.09,TxWx,2013-02-10 08:45:00,
2013-02-10 03:49:00,70.0,62.0,30.19,East,96,14.2,14.2,77,0.00,,,0.09,TxWx,2013-02-10 08:49:00,
2013-02-10 03:50:00,69.7,62.0,30.18,ESE,118,17.9,21.7,77,0.00,,,0.10,TxWx,2013-02-10 08:50:00,
2013-02-10 03:51:00,69.7,62.0,30.19,East,96,18.6,18.6,76,0.00,,,0.10,TxWx,2013-02-10 08:51:00,
2013-02-10 03:54:00,70.5,62.0,30.18,ESE,118,16.7,16.7,77,0.06,,,0.10,TxWx,2013-02-10 08:54:00,
2013-02-10 03:56:00,70.1,63.0,30.19,SE,141,14.2,15.5,78,0.06,,,0.10,TxWx,2013-02-10 08:56:00,
2013-02-10 03:59:00,69.6,62.0,30.19,ESE,118,13.0,13.6,77,0.06,,,0.10,TxWx,2013-02-10 08:59:00,
2013-02-10 04:01:00,70.0,63.0,30.18,East,96,10.5,10.5,78,0.06,,,0.10,TxWx,2013-02-10 09:01:00,
2013-02-10 04:02:00,69.7,63.0,30.19,ESE,118,11.1,11.1,78,0.00,,,0.10,TxWx,2013-02-10 09:02:00,
2013-02-10 04:05:00,69.8,63.0,30.18,SE,141,8.7,8.7,78,0.00,,,0.10,TxWx,2013-02-10 09:05:00,
2013-02-10 04:07:00,70.1,63.0,30.18,ESE,118,9.3,9.3,78,0.00,,,0.10,TxWx,2013-02-10 09:07:00,
2013-02-10 04:08:00,69.9,63.0,30.19,ESE,118,8.7,8.7,78,0.00,,,0.10,TxWx,2013-02-10 09:08:00,
2013-02-10 04:11:00,70.5,64.0,30.19,ESE,118,11.8,11.8,78,0.00,,,0.10,TxWx,2013-02-10 09:11:00,
2013-02-10 04:13:00,70.9,64.0,30.19,East,96,13.6,13.6,79,0.00,,,0.10,TxWx,2013-02-10 09:13:00,
2013-02-10 04:14:00,70.5,63.0,30.19,ESE,118,16.7,16.7,77,0.00,,,0.10,TxWx,2013-02-10 09:14:00,
2013-02-10 04:17:00,70.5,63.0,30.19,ESE,118,14.2,14.9,76,0.00,,,0.10,TxWx,2013-02-10 09:17:00,
2013-02-10 04:18:00,70.2,62.0,30.19,ESE,118,14.9,14.9,75,0.00,,,0.10,TxWx,2013-02-10 09:18:00,
2013-02-10 04:20:00,70.0,61.0,30.19,ESE,118,11.8,11.8,74,0.00,,,0.10,TxWx,2013-02-10 09:20:00,
2013-02-10 04:23:00,69.8,61.0,30.19,East,96,12.4,13.0,74,0.00,,,0.10,TxWx,2013-02-10 09:23:00,
2013-02-10 04:24:00,70.2,61.0,30.18,East,96,9.9,11.8,74,0.00,,,0.10,TxWx,2013-02-10 09:24:00,
2013-02-10 04:27:00,70.0,61.0,30.18,ESE,118,9.9,9.9,75,0.00,,,0.10,TxWx,2013-02-10 09:27:00,
2013-02-10 04:28:00,69.9,62.0,30.18,East,96,9.3,9.9,75,0.00,,,0.10,TxWx,2013-02-10 09:28:00,
2013-02-10 04:29:00,70.0,61.0,30.18,ESE,118,8.0,8.7,75,0.00,,,0.10,TxWx,2013-02-10 09:29:00,
2013-02-10 04:30:00,70.2,62.0,30.18,ESE,118,13.6,13.6,76,0.00,,,0.10,TxWx,2013-02-10 09:30:00,
2013-02-10 04:32:00,70.3,62.0,30.18,ESE,118,9.9,13.0,75,0.00,,,0.10,TxWx,2013-02-10 09:32:00,
2013-02-10 04:34:00,70.7,63.0,30.18,ESE,118,19.8,19.8,76,0.00,,,0.10,TxWx,2013-02-10 09:34:00,
2013-02-10 04:35:00,70.9,63.0,30.18,East,96,18.6,20.4,76,0.00,,,0.10,TxWx,2013-02-10 09:35:00,
2013-02-10 04:36:00,70.8,63.0,30.18,East,96,17.9,17.9,75,0.00,,,0.10,TxWx,2013-02-10 09:36:00,
2013-02-10 04:40:00,71.2,62.0,30.18,East,96,14.9,15.5,75,0.00,,,0.10,TxWx,2013-02-10 09:40:00,
2013-02-10 04:41:00,70.9,62.0,30.18,East,96,21.7,21.7,75,0.00,,,0.10,TxWx,2013-02-10 09:41:00,
2013-02-10 04:42:00,71.1,63.0,30.18,East,96,18.6,18.6,75,0.00,,,0.10,TxWx,2013-02-10 09:42:00,
2013-02-10 04:45:00,70.7,62.0,30.18,East,96,19.8,21.7,74,0.00,,,0.10,TxWx,2013-02-10 09:45:00,
2013-02-10 04:46:00,70.8,63.0,30.18,East,96,18.6,20.4,75,0.00,,,0.10,TxWx,2013-02-10 09:46:00,
2013-02-10 04:47:00,70.9,63.0,30.18,ENE,73,18.6,18.6,76,0.00,,,0.10,TxWx,2013-02-10 09:47:00,
2013-02-10 04:51:00,70.0,62.0,30.18,East,96,25.4,25.4,76,0.00,,,0.21,TxWx,2013-02-10 09:51:00,
2013-02-10 04:52:00,69.8,62.0,30.18,East,96,25.4,26.6,76,0.66,,,0.21,TxWx,2013-02-10 09:52:00,
2013-02-10 04:53:00,70.6,64.0,30.18,East,96,19.8,22.9,78,0.66,,,0.21,TxWx,2013-02-10 09:53:00,
2013-02-10 04:55:00,69.8,62.0,30.18,East,96,24.8,24.8,77,0.66,,,0.21,TxWx,2013-02-10 09:55:00,
2013-02-10 04:57:00,70.1,63.0,30.19,East,96,21.0,23.5,78,0.66,,,0.21,TxWx,2013-02-10 09:57:00,
2013-02-10 04:58:00,70.0,62.0,30.18,East,96,21.7,22.3,77,0.66,,,0.21,TxWx,2013-02-10 09:58:00,
2013-02-10 04:59:00,69.5,61.0,30.18,East,96,22.9,22.9,76,0.66,,,0.21,TxWx,2013-02-10 09:59:00,
2013-02-10 05:02:00,69.7,63.0,30.18,East,96,22.9,22.9,78,0.66,,,0.21,TxWx,2013-02-10 10:02:00,
2013-02-10 05:04:00,69.1,62.0,30.18,East,96,21.7,22.9,78,0.00,,,0.21,TxWx,2013-02-10 10:04:00,
2013-02-10 05:08:00,69.1,62.0,30.19,ESE,118,22.9,23.5,78,0.00,,,0.21,TxWx,2013-02-10 10:08:00,
2013-02-10 05:09:00,69.6,63.0,30.19,East,96,17.9,22.3,79,0.00,,,0.21,TxWx,2013-02-10 10:09:00,
2013-02-10 05:10:00,69.4,62.0,30.19,ESE,118,22.3,22.3,78,0.00,,,0.21,TxWx,2013-02-10 10:10:00,
2013-02-10 05:14:00,68.9,62.0,30.19,East,96,15.5,17.3,78,0.00,,,0.21,TxWx,2013-02-10 10:14:00,
2013-02-10 05:15:00,69.1,62.0,30.19,ESE,118,15.5,16.7,78,0.00,,,0.21,TxWx,2013-02-10 10:15:00,
2013-02-10 05:20:00,69.6,63.0,30.19,ESE,118,16.7,19.2,78,0.00,,,0.21,TxWx,2013-02-10 10:20:00,
2013-02-10 05:22:00,70.3,63.0,30.19,East,96,20.4,21.0,79,0.00,,,0.21,TxWx,2013-02-10 10:22:00,
2013-02-10 05:25:00,69.7,63.0,30.19,ESE,118,16.7,16.7,78,0.00,,,0.21,TxWx,2013-02-10 10:25:00,
2013-02-10 05:26:00,70.2,63.0,30.19,ESE,118,17.9,17.9,79,0.00,,,0.21,TxWx,2013-02-10 10:26:00,
2013-02-10 05:28:00,69.3,62.0,30.19,ESE,118,15.5,17.3,79,0.00,,,0.21,TxWx,2013-02-10 10:28:00,
2013-02-10 05:32:00,68.6,62.0,30.19,East,96,11.8,11.8,80,0.00,,,0.21,TxWx,2013-02-10 10:32:00,
2013-02-10 05:34:00,69.2,63.0,30.19,East,96,11.8,11.8,81,0.00,,,0.21,TxWx,2013-02-10 10:34:00,
2013-02-10 05:36:00,68.8,63.0,30.20,ESE,118,9.3,11.1,81,0.00,,,0.21,TxWx,2013-02-10 10:36:00,
2013-02-10 05:37:00,69.1,63.0,30.20,East,96,12.4,12.4,82,0.00,,,0.21,TxWx,2013-02-10 10:37:00,
2013-02-10 05:38:00,68.8,63.0,30.20,ESE,118,14.2,14.2,81,0.00,,,0.21,TxWx,2013-02-10 10:38:00,
2013-02-10 05:40:00,69.2,63.0,30.20,SE,141,11.8,11.8,81,0.00,,,0.21,TxWx,2013-02-10 10:40:00,
2013-02-10 05:44:00,69.3,63.0,30.20,East,96,17.9,17.9,81,0.00,,,0.22,TxWx,2013-02-10 10:44:00,
2013-02-10 05:46:00,69.7,64.0,30.20,NE,51,17.3,17.3,81,0.00,,,0.22,TxWx,2013-02-10 10:46:00,
2013-02-10 05:49:00,69.2,62.0,30.20,ESE,118,9.9,11.1,80,0.00,,,0.22,TxWx,2013-02-10 10:49:00,
2013-02-10 05:50:00,69.5,63.0,30.20,East,96,10.5,11.1,80,0.00,,,0.22,TxWx,2013-02-10 10:50:00,
2013-02-10 05:51:00,70.1,64.0,30.19,ESE,118,17.3,19.8,81,0.00,,,0.22,TxWx,2013-02-10 10:51:00,
2013-02-10 05:52:00,70.0,64.0,30.19,ENE,73,16.7,16.7,80,0.06,,,0.22,TxWx,2013-02-10 10:52:00,
2013-02-10 05:56:00,70.9,63.0,30.19,East,96,21.7,21.7,77,0.06,,,0.23,TxWx,2013-02-10 10:56:00,
2013-02-10 05:57:00,71.3,64.0,30.19,NE,51,15.5,18.6,78,0.06,,,0.24,TxWx,2013-02-10 10:57:00,
2013-02-10 05:59:00,71.3,63.0,30.19,East,96,19.2,19.2,77,0.06,,,0.28,TxWx,2013-02-10 10:59:00,
2013-02-10 06:01:00,70.7,62.0,30.19,East,96,23.5,25.4,74,0.06,,,0.34,TxWx,2013-02-10 11:01:00,
2013-02-10 06:02:00,70.8,62.0,30.20,East,96,21.0,21.0,74,0.72,,,0.34,TxWx,2013-02-10 11:02:00,
2013-02-10 06:04:00,71.4,62.0,30.20,East,96,20.4,20.4,74,0.72,,,0.38,TxWx,2013-02-10 11:04:00,
2013-02-10 06:05:00,71.3,62.0,30.20,ESE,118,14.2,14.2,74,0.72,,,0.40,TxWx,2013-02-10 11:05:00,
2013-02-10 06:07:00,71.0,62.0,30.20,East,96,18.6,18.6,74,0.72,,,0.41,TxWx,2013-02-10 11:07:00,
2013-02-10 06:09:00,71.0,61.0,30.20,ESE,118,16.1,16.7,72,0.72,,,0.45,TxWx,2013-02-10 11:09:00,
2013-02-10 06:12:00,71.0,62.0,30.20,ESE,118,16.1,16.1,73,0.66,,,0.45,TxWx,2013-02-10 11:12:00,
2013-02-10 06:13:00,71.2,62.0,30.20,East,96,13.6,13.6,74,0.66,,,0.45,TxWx,2013-02-10 11:13:00,
2013-02-10 06:14:00,70.9,62.0,30.20,East,96,12.4,13.0,74,0.66,,,0.45,TxWx,2013-02-10 11:14:00,
2013-02-10 06:19:00,71.3,62.0,30.20,East,96,21.7,22.9,74,0.66,,,0.47,TxWx,2013-02-10 11:19:00,
2013-02-10 06:20:00,71.5,63.0,30.20,East,96,18.6,19.2,73,0.66,,,0.49,TxWx,2013-02-10 11:20:00,
2013-02-10 06:22:00,71.5,63.0,30.20,East,96,16.1,19.8,73,0.54,,,0.54,TxWx,2013-02-10 11:22:00,
2013-02-10 06:25:00,71.1,61.0,30.20,East,96,17.9,17.9,72,0.54,,,0.54,TxWx,2013-02-10 11:25:00,
2013-02-10 06:27:00,71.5,61.0,30.20,ENE,73,15.5,17.9,70,0.54,,,0.54,TxWx,2013-02-10 11:27:00,
2013-02-10 06:28:00,72.1,63.0,30.20,East,96,16.7,17.9,73,0.54,,,0.54,TxWx,2013-02-10 11:28:00,
2013-02-10 06:30:00,71.3,61.0,30.20,ESE,118,20.4,20.4,70,0.54,,,0.54,TxWx,2013-02-10 11:30:00,
2013-02-10 06:32:00,71.5,61.0,30.20,ESE,118,17.3,19.8,71,0.06,,,0.55,TxWx,2013-02-10 11:32:00,
2013-02-10 06:33:00,71.7,62.0,30.20,ESE,118,19.2,19.8,71,0.06,,,0.55,TxWx,2013-02-10 11:33:00,
2013-02-10 06:34:00,72.1,62.0,30.20,ESE,118,18.6,18.6,71,0.06,,,0.55,TxWx,2013-02-10 11:34:00,
2013-02-10 06:35:00,71.6,62.0,30.20,NE,51,18.6,22.3,72,0.06,,,0.55,TxWx,2013-02-10 11:35:00,
2013-02-10 06:37:00,71.5,62.0,30.20,ENE,73,19.8,20.4,72,0.06,,,0.55,TxWx,2013-02-10 11:37:00,
2013-02-10 06:38:00,72.0,62.0,30.20,ESE,118,17.9,17.9,72,0.06,,,0.57,TxWx,2013-02-10 11:38:00,
2013-02-10 06:39:00,71.4,61.0,30.20,ESE,118,19.8,19.8,70,0.06,,,0.60,TxWx,2013-02-10 11:39:00,
2013-02-10 06:42:00,71.8,61.0,30.20,ENE,73,18.6,18.6,70,0.36,,,0.61,TxWx,2013-02-10 11:42:00,
2013-02-10 06:44:00,71.5,61.0,30.21,East,96,21.0,21.0,70,0.36,,,0.62,TxWx,2013-02-10 11:44:00,
2013-02-10 06:45:00,71.3,60.0,30.20,East,96,24.8,24.8,69,0.36,,,0.65,TxWx,2013-02-10 11:45:00,
2013-02-10 06:48:00,71.8,61.0,30.21,ESE,118,18.6,19.2,69,0.36,,,0.66,TxWx,2013-02-10 11:48:00,
2013-02-10 06:49:00,71.7,61.0,30.21,East,96,18.6,18.6,69,0.36,,,0.66,TxWx,2013-02-10 11:49:00,
2013-02-10 06:50:00,71.6,61.0,30.21,East,96,19.8,20.4,69,0.36,,,0.66,TxWx,2013-02-10 11:50:00,
2013-02-10 06:51:00,72.0,61.0,30.21,ESE,118,18.6,18.6,69,0.36,,,0.66,TxWx,2013-02-10 11:51:00,
2013-02-10 06:55:00,71.8,61.0,30.21,East,96,16.7,17.9,69,0.30,,,0.67,TxWx,2013-02-10 11:55:00,
2013-02-10 06:56:00,72.0,61.0,30.21,East,96,18.6,18.6,70,0.30,,,0.67,TxWx,2013-02-10 11:56:00,
2013-02-10 06:57:00,71.5,61.0,30.21,East,96,21.0,21.0,69,0.30,,,0.67,TxWx,2013-02-10 11:57:00,
2013-02-10 07:01:00,71.5,60.0,30.21,East,96,19.8,19.8,69,0.30,,,0.68,TxWx,2013-02-10 12:01:00,
2013-02-10 07:02:00,71.4,60.0,30.21,East,96,16.7,18.6,69,0.30,,,0.69,TxWx,2013-02-10 12:02:00,
2013-02-10 07:05:00,71.6,61.0,30.21,ESE,118,16.1,17.3,68,0.18,,,0.72,TxWx,2013-02-10 12:05:00,
2013-02-10 07:07:00,71.8,61.0,30.22,East,96,17.9,18.6,68,0.18,,,0.72,TxWx,2013-02-10 12:07:00,
2013-02-10 07:08:00,71.6,61.0,30.22,East,96,19.8,19.8,69,0.18,,,0.72,TxWx,2013-02-10 12:08:00,
2013-02-10 07:11:00,71.6,61.0,30.22,East,96,15.5,17.9,69,0.18,,,0.74,TxWx,2013-02-10 12:11:00,
2013-02-10 07:13:00,71.7,61.0,30.22,East,96,14.2,16.7,69,0.30,,,0.74,TxWx,2013-02-10 12:13:00,
2013-02-10 07:15:00,71.9,61.0,30.22,ESE,118,16.1,17.3,70,0.30,,,0.75,TxWx,2013-02-10 12:15:00,
2013-02-10 07:18:00,71.8,61.0,30.22,ESE,118,16.7,16.7,69,0.30,,,0.76,TxWx,2013-02-10 12:18:00,
2013-02-10 07:19:00,71.7,61.0,30.22,ESE,118,17.3,19.2,69,0.30,,,0.76,TxWx,2013-02-10 12:19:00,
2013-02-10 07:21:00,72.0,62.0,30.22,ESE,118,17.9,18.6,71,0.30,,,0.76,TxWx,2013-02-10 12:21:00,
2013-02-10 07:22:00,71.9,62.0,30.23,East,96,19.2,19.2,71,0.12,,,0.76,TxWx,2013-02-10 12:22:00,
2013-02-10 07:24:00,71.6,62.0,30.23,East,96,19.8,19.8,70,0.12,,,0.76,TxWx,2013-02-10 12:24:00,
2013-02-10 07:25:00,71.7,61.0,30.23,East,96,20.4,20.4,70,0.12,,,0.76,TxWx,2013-02-10 12:25:00,
2013-02-10 07:26:00,71.5,62.0,30.23,East,96,17.3,17.3,70,0.12,,,0.76,TxWx,2013-02-10 12:26:00,
2013-02-10 07:27:00,71.6,61.0,30.23,East,96,16.7,16.7,69,0.12,,,0.76,TxWx,2013-02-10 12:27:00,
2013-02-10 07:29:00,72.1,62.0,30.23,ESE,118,15.5,15.5,72,0.12,,,0.76,TxWx,2013-02-10 12:29:00,
2013-02-10 07:32:00,71.5,61.0,30.23,East,96,17.9,17.9,68,0.00,,,0.76,TxWx,2013-02-10 12:32:00,
2013-02-10 07:33:00,71.8,61.0,30.23,East,96,14.9,16.1,69,0.00,,,0.76,TxWx,2013-02-10 12:33:00,
2013-02-10 07:34:00,71.9,62.0,30.23,ESE,118,16.7,16.7,71,0.00,,,0.76,TxWx,2013-02-10 12:34:00,
2013-02-10 07:35:00,71.8,62.0,30.23,ESE,118,14.9,16.1,71,0.00,,,0.76,TxWx,2013-02-10 12:35:00,
2013-02-10 07:38:00,71.4,61.0,30.23,East,96,16.7,21.0,70,0.00,,,0.77,TxWx,2013-02-10 12:38:00,
2013-02-10 07:40:00,71.2,60.0,30.24,East,96,18.6,18.6,69,0.00,,,0.77,TxWx,2013-02-10 12:40:00,
2013-02-10 07:41:00,71.9,61.0,30.23,ESE,118,17.3,17.3,69,0.00,,,0.77,TxWx,2013-02-10 12:41:00,
2013-02-10 07:45:00,71.3,60.0,30.24,ESE,118,19.8,21.0,69,0.06,,,0.77,TxWx,2013-02-10 12:45:00,
2013-02-10 07:47:00,71.3,60.0,30.23,ESE,118,17.9,19.2,68,0.06,,,0.77,TxWx,2013-02-10 12:47:00,
2013-02-10 07:48:00,71.4,60.0,30.23,ESE,118,19.2,20.4,68,0.06,,,0.77,TxWx,2013-02-10 12:48:00,
2013-02-10 07:49:00,71.5,60.0,30.23,ESE,118,22.9,22.9,69,0.06,,,0.77,TxWx,2013-02-10 12:49:00,
2013-02-10 07:50:00,71.5,61.0,30.23,East,96,17.3,17.9,69,0.06,,,0.77,TxWx,2013-02-10 12:50:00,
2013-02-10 07:52:00,71.8,61.0,30.23,East,96,19.2,19.2,69,0.00,,,0.77,TxWx,2013-02-10 12:52:00,
2013-02-10 07:54:00,71.7,61.0,30.23,ESE,118,17.9,19.8,69,0.00,,,0.77,TxWx,2013-02-10 12:54:00,
2013-02-10 07:55:00,71.6,61.0,30.23,East,96,18.6,18.6,68,0.00,,,0.77,TxWx,2013-02-10 12:55:00,
2013-02-10 07:56:00,71.8,61.0,30.23,ESE,118,19.8,19.8,69,0.00,,,0.77,TxWx,2013-02-10 12:56:00,
2013-02-10 07:58:00,71.4,60.0,30.23,ESE,118,16.7,17.9,69,0.00,,,0.77,TxWx,2013-02-10 12:58:00,
2013-02-10 08:00:00,71.8,62.0,30.23,ESE,118,16.7,17.3,71,0.00,,,0.77,TxWx,2013-02-10 13:00:00,
2013-02-10 08:01:00,72.0,62.0,30.24,ESE,118,16.1,17.9,71,0.00,,,0.77,TxWx,2013-02-10 13:01:00,
2013-02-10 08:04:00,71.3,60.0,30.24,ESE,118,19.8,22.9,70,0.00,,,0.79,TxWx,2013-02-10 13:04:00,
2013-02-10 08:05:00,71.6,62.0,30.24,East,96,15.5,15.5,70,0.00,,,0.80,TxWx,2013-02-10 13:05:00,
2013-02-10 08:06:00,71.8,62.0,30.24,East,96,20.4,20.4,71,0.00,,,0.80,TxWx,2013-02-10 13:06:00,
2013-02-10 08:07:00,71.5,62.0,30.24,ESE,118,21.7,23.5,70,0.00,,,0.81,TxWx,2013-02-10 13:07:00,
2013-02-10 08:09:00,71.5,61.0,30.24,East,96,17.3,18.6,69,0.00,,,0.81,TxWx,2013-02-10 13:09:00,
2013-02-10 08:11:00,71.5,62.0,30.24,East,96,19.8,19.8,70,0.00,,,0.81,TxWx,2013-02-10 13:11:00,
2013-02-10 08:13:00,71.5,62.0,30.24,ESE,118,17.3,19.2,71,0.36,,,0.83,TxWx,2013-02-10 13:13:00,
2013-02-10 08:17:00,71.6,62.0,30.24,ESE,118,16.7,16.7,71,0.36,,,0.83,TxWx,2013-02-10 13:17:00,
2013-02-10 08:18:00,71.3,60.0,30.24,ESE,118,20.4,21.7,70,0.36,,,0.85,TxWx,2013-02-10 13:18:00,
2013-02-10 08:19:00,71.4,60.0,30.24,East,96,22.3,22.3,69,0.36,,,0.86,TxWx,2013-02-10 13:19:00,
2013-02-10 08:20:00,71.4,60.0,30.24,East,96,20.4,20.4,70,0.36,,,0.86,TxWx,2013-02-10 13:20:00,
2013-02-10 08:23:00,71.6,61.0,30.24,ESE,118,15.5,17.3,70,0.24,,,0.87,TxWx,2013-02-10 13:23:00,
2013-02-10 08:25:00,71.8,62.0,30.24,East,96,16.7,16.7,70,0.24,,,0.89,TxWx,2013-02-10 13:25:00,
2013-02-10 08:27:00,71.9,62.0,30.24,ESE,118,19.8,20.4,71,0.24,,,0.91,TxWx,2013-02-10 13:27:00,
2013-02-10 08:28:00,71.4,61.0,30.24,East,96,21.7,21.7,70,0.24,,,0.91,TxWx,2013-02-10 13:28:00,
2013-02-10 08:32:00,71.6,61.0,30.24,East,96,25.4,25.4,70,0.78,,,1.00,TxWx,2013-02-10 13:32:00,
2013-02-10 08:33:00,71.6,61.0,30.24,East,96,21.0,21.0,70,0.78,,,1.01,TxWx,2013-02-10 13:33:00,
2013-02-10 08:37:00,71.4,60.0,30.24,East,96,24.8,26.0,69,0.78,,,1.01,TxWx,2013-02-10 13:37:00,
2013-02-10 08:38:00,71.5,61.0,30.24,East,96,21.0,21.0,69,0.78,,,1.01,TxWx,2013-02-10 13:38:00,
2013-02-10 08:39:00,71.7,62.0,30.24,East,96,21.0,21.0,70,0.78,,,1.01,TxWx,2013-02-10 13:39:00,
2013-02-10 08:40:00,71.7,62.0,30.24,ESE,118,19.8,21.0,70,0.78,,,1.01,TxWx,2013-02-10 13:40:00,
2013-02-10 08:43:00,71.9,61.0,30.24,East,96,21.0,21.0,70,0.06,,,1.01,TxWx,2013-02-10 13:43:00,
2013-02-10 08:45:00,71.4,60.0,30.24,ESE,118,19.2,23.5,69,0.06,,,1.01,TxWx,2013-02-10 13:45:00,
2013-02-10 08:46:00,71.6,61.0,30.24,East,96,22.9,24.1,69,0.06,,,1.01,TxWx,2013-02-10 13:46:00,
2013-02-10 08:48:00,71.7,61.0,30.24,East,96,23.5,24.8,68,0.06,,,1.01,TxWx,2013-02-10 13:48:00,
2013-02-10 08:51:00,71.5,61.0,30.24,East,96,21.0,21.7,70,0.06,,,1.01,TxWx,2013-02-10 13:51:00,
2013-02-10 08:52:00,71.3,60.0,30.24,ESE,118,21.0,23.5,69,0.00,,,1.01,TxWx,2013-02-10 13:52:00,
2013-02-10 08:53:00,71.4,60.0,30.25,East,96,22.9,22.9,68,0.00,,,1.01,TxWx,2013-02-10 13:53:00,
2013-02-10 08:54:00,72.0,62.0,30.25,East,96,16.7,17.3,70,0.00,,,1.01,TxWx,2013-02-10 13:54:00,
2013-02-10 08:57:00,71.6,61.0,30.25,East,96,20.4,22.9,70,0.00,,,1.01,TxWx,2013-02-10 13:57:00,
2013-02-10 08:58:00,71.6,62.0,30.25,East,96,21.7,22.3,70,0.00,,,1.01,TxWx,2013-02-10 13:58:00,
2013-02-10 09:02:00,71.5,61.0,30.25,East,96,24.8,24.8,70,0.00,,,1.01,TxWx,2013-02-10 14:02:00,
2013-02-10 09:03:00,71.6,62.0,30.25,East,96,21.0,21.0,72,0.00,,,1.01,TxWx,2013-02-10 14:03:00,
2013-02-10 09:06:00,71.1,61.0,30.25,ESE,118,22.9,22.9,71,0.00,,,1.01,TxWx,2013-02-10 14:06:00,
2013-02-10 09:07:00,71.4,61.0,30.25,East,96,24.1,24.1,72,0.00,,,1.01,TxWx,2013-02-10 14:07:00,
2013-02-10 09:09:00,71.5,61.0,30.25,ESE,118,17.9,19.8,70,0.00,,,1.01,TxWx,2013-02-10 14:09:00,
2013-02-10 09:13:00,71.1,60.0,30.25,East,96,25.4,25.4,69,0.00,,,1.01,TxWx,2013-02-10 14:13:00,
2013-02-10 09:14:00,71.5,62.0,30.25,ESE,118,22.9,22.9,71,0.00,,,1.01,TxWx,2013-02-10 14:14:00,
2013-02-10 09:18:00,71.3,60.0,30.25,East,96,20.4,22.9,70,0.00,,,1.01,TxWx,2013-02-10 14:18:00,
2013-02-10 09:20:00,71.3,61.0,30.25,ESE,118,17.9,18.6,70,0.00,,,1.01,TxWx,2013-02-10 14:20:00,
2013-02-10 09:21:00,71.4,61.0,30.25,ESE,118,19.8,19.8,70,0.00,,,1.01,TxWx,2013-02-10 14:21:00,
2013-02-10 09:25:00,71.1,60.0,30.25,East,96,24.8,24.8,69,0.00,,,1.01,TxWx,2013-02-10 14:25:00,
2013-02-10 09:26:00,71.4,60.0,30.26,East,96,20.4,20.4,70,0.00,,,1.01,TxWx,2013-02-10 14:26:00,
2013-02-10 09:27:00,71.3,61.0,30.26,East,96,24.1,24.1,70,0.00,,,1.01,TxWx,2013-02-10 14:27:00,
2013-02-10 09:31:00,71.1,60.0,30.26,East,96,22.9,25.4,70,0.00,,,1.01,TxWx,2013-02-10 14:31:00,
2013-02-10 09:32:00,71.3,60.0,30.26,ESE,118,19.8,19.8,69,0.00,,,1.01,TxWx,2013-02-10 14:32:00,
2013-02-10 09:33:00,71.3,60.0,30.26,East,96,20.4,22.9,69,0.00,,,1.01,TxWx,2013-02-10 14:33:00,
2013-02-10 09:37:00,71.2,60.0,30.26,East,96,21.0,22.9,68,0.00,,,1.01,TxWx,2013-02-10 14:37:00,
2013-02-10 09:38:00,71.2,60.0,30.26,East,96,22.9,22.9,69,0.00,,,1.01,TxWx,2013-02-10 14:38:00,
2013-02-10 09:43:00,71.2,60.0,30.26,East,96,22.3,22.9,68,0.00,,,1.01,TxWx,2013-02-10 14:43:00,
2013-02-10 09:44:00,71.4,60.0,30.26,East,96,23.5,23.5,68,0.00,,,1.01,TxWx,2013-02-10 14:44:00,
2013-02-10 09:49:00,71.3,60.0,30.27,East,96,19.2,19.2,68,0.00,,,1.01,TxWx,2013-02-10 14:49:00,
2013-02-10 09:50:00,71.2,59.0,30.27,ESE,118,20.4,20.4,67,0.00,,,1.01,TxWx,2013-02-10 14:50:00,
2013-02-10 09:51:00,71.3,60.0,30.27,East,96,18.6,18.6,68,0.00,,,1.01,TxWx,2013-02-10 14:51:00,
2013-02-10 09:55:00,71.3,60.0,30.27,ESE,118,22.3,22.3,69,0.00,,,1.01,TxWx,2013-02-10 14:55:00,
2013-02-10 09:57:00,71.4,60.0,30.27,ESE,118,21.0,21.0,68,0.00,,,1.01,TxWx,2013-02-10 14:57:00,
2013-02-10 10:01:00,71.1,60.0,30.28,East,96,20.4,20.4,68,0.00,,,1.01,TxWx,2013-02-10 15:01:00,
2013-02-10 10:05:00,71.3,60.0,30.28,ESE,118,21.7,21.7,70,0.00,,,1.01,TxWx,2013-02-10 15:05:00,
2013-02-10 10:06:00,71.5,60.0,30.28,ESE,118,17.3,18.6,69,0.00,,,1.01,TxWx,2013-02-10 15:06:00,
2013-02-10 10:11:00,71.5,61.0,30.28,East,96,24.1,24.1,69,0.00,,,1.01,TxWx,2013-02-10 15:11:00,
2013-02-10 10:12:00,71.2,59.0,30.28,East,96,24.1,24.1,67,0.00,,,1.01,TxWx,2013-02-10 15:12:00,
2013-02-10 10:16:00,71.3,59.0,30.28,East,96,17.9,21.0,67,0.00,,,1.01,TxWx,2013-02-10 15:16:00,
2013-02-10 10:17:00,71.2,59.0,30.28,East,96,17.9,19.2,67,0.00,,,1.01,TxWx,2013-02-10 15:17:00,
2013-02-10 10:18:00,71.3,59.0,30.28,East,96,17.9,19.2,67,0.00,,,1.01,TxWx,2013-02-10 15:18:00,
2013-02-10 10:20:00,71.6,61.0,30.28,ESE,118,20.4,20.4,68,0.00,,,1.01,TxWx,2013-02-10 15:20:00,
2013-02-10 10:21:00,71.2,60.0,30.28,East,96,17.3,20.4,68,0.00,,,1.01,TxWx,2013-02-10 15:21:00,
2013-02-10 10:23:00,71.3,60.0,30.29,East,96,22.9,22.9,69,0.00,,,1.01,TxWx,2013-02-10 15:23:00,
2013-02-10 10:25:00,71.3,60.0,30.28,East,96,16.7,17.3,68,0.00,,,1.01,TxWx,2013-02-10 15:25:00,
2013-02-10 10:28:00,71.1,59.0,30.28,ESE,118,21.0,21.0,67,0.00,,,1.01,TxWx,2013-02-10 15:28:00,
2013-02-10 10:30:00,71.6,60.0,30.29,East,96,20.4,20.4,68,0.00,,,1.01,TxWx,2013-02-10 15:30:00,
2013-02-10 10:34:00,71.6,61.0,30.29,East,96,20.4,20.4,68,0.00,,,1.01,TxWx,2013-02-10 15:34:00,
2013-02-10 10:35:00,71.5,61.0,30.29,East,96,15.5,16.7,68,0.00,,,1.01,TxWx,2013-02-10 15:35:00,
2013-02-10 10:36:00,71.3,59.0,30.29,East,96,21.0,21.0,67,0.00,,,1.01,TxWx,2013-02-10 15:36:00,
2013-02-10 10:40:00,71.5,60.0,30.29,ESE,118,16.7,17.3,68,0.00,,,1.01,TxWx,2013-02-10 15:40:00,
2013-02-10 10:41:00,71.2,60.0,30.29,East,96,22.3,22.3,68,0.00,,,1.01,TxWx,2013-02-10 15:41:00,
2013-02-10 10:43:00,71.3,59.0,30.29,East,96,17.9,19.8,67,0.00,,,1.01,TxWx,2013-02-10 15:43:00,
2013-02-10 10:45:00,71.2,59.0,30.29,East,96,23.5,23.5,67,0.00,,,1.01,TxWx,2013-02-10 15:45:00,
2013-02-10 10:46:00,71.5,61.0,30.29,East,96,21.0,21.0,68,0.00,,,1.01,TxWx,2013-02-10 15:46:00,
2013-02-10 10:50:00,71.3,59.0,30.29,East,96,17.9,17.9,67,0.00,,,1.01,TxWx,2013-02-10 15:50:00,
2013-02-10 10:51:00,71.3,60.0,30.29,East,96,18.6,19.8,68,0.00,,,1.01,TxWx,2013-02-10 15:51:00,
2013-02-10 10:55:00,71.2,59.0,30.29,East,96,21.0,21.0,67,0.00,,,1.01,TxWx,2013-02-10 15:55:00,
2013-02-10 10:56:00,71.4,60.0,30.29,ENE,73,17.9,20.4,68,0.00,,,1.01,TxWx,2013-02-10 15:56:00,
2013-02-10 10:57:00,70.9,59.0,30.29,ESE,118,22.3,22.3,66,0.00,,,1.01,TxWx,2013-02-10 15:57:00,
2013-02-10 11:01:00,71.3,59.0,30.29,East,96,19.8,20.4,67,0.00,,,1.01,TxWx,2013-02-10 16:01:00,
2013-02-10 11:02:00,71.7,61.0,30.29,East,96,18.6,19.8,68,0.00,,,1.01,TxWx,2013-02-10 16:02:00,
2013-02-10 11:07:00,71.2,60.0,30.29,ESE,118,21.7,21.7,68,0.00,,,1.01,TxWx,2013-02-10 16:07:00,
2013-02-10 11:08:00,71.1,59.0,30.29,East,96,21.7,21.7,67,0.00,,,1.01,TxWx,2013-02-10 16:08:00,
2013-02-10 11:09:00,71.6,61.0,30.29,ESE,118,13.6,15.5,68,0.00,,,1.01,TxWx,2013-02-10 16:09:00,
2013-02-10 11:12:00,71.2,59.0,30.29,East,96,18.6,19.8,67,0.00,,,1.01,TxWx,2013-02-10 16:12:00,
2013-02-10 11:14:00,71.3,59.0,30.29,East,96,17.9,17.9,67,0.00,,,1.01,TxWx,2013-02-10 16:14:00,
2013-02-10 11:15:00,71.2,59.0,30.29,East,96,17.3,18.6,66,0.00,,,1.01,TxWx,2013-02-10 16:15:00,
2013-02-10 11:18:00,71.1,59.0,30.29,ESE,118,17.9,21.0,66,0.00,,,1.01,TxWx,2013-02-10 16:18:00,
2013-02-10 11:19:00,71.4,59.0,30.29,East,96,17.9,20.4,67,0.00,,,1.01,TxWx,2013-02-10 16:19:00,
2013-02-10 11:21:00,71.3,59.0,30.29,East,96,18.6,18.6,67,0.00,,,1.01,TxWx,2013-02-10 16:21:00,
2013-02-10 11:24:00,71.6,61.0,30.29,East,96,18.6,19.2,68,0.00,,,1.01,TxWx,2013-02-10 16:24:00,
2013-02-10 11:26:00,71.4,59.0,30.29,ESE,118,17.9,17.9,67,0.00,,,1.01,TxWx,2013-02-10 16:26:00,
2013-02-10 11:30:00,71.8,61.0,30.29,East,96,15.5,17.3,69,0.00,,,1.01,TxWx,2013-02-10 16:30:00,
2013-02-10 11:32:00,71.6,61.0,30.29,ESE,118,16.1,16.1,69,0.00,,,1.01,TxWx,2013-02-10 16:32:00,
2013-02-10 11:33:00,71.3,60.0,30.29,East,96,22.3,22.3,68,0.00,,,1.01,TxWx,2013-02-10 16:33:00,
2013-02-10 11:35:00,71.5,60.0,30.29,ESE,118,16.1,16.1,68,0.00,,,1.01,TxWx,2013-02-10 16:35:00,
2013-02-10 11:38:00,71.5,61.0,30.29,East,96,12.4,17.3,69,0.00,,,1.01,TxWx,2013-02-10 16:38:00,
2013-02-10 11:41:00,71.4,59.0,30.28,ENE,73,23.5,23.5,67,0.00,,,1.01,TxWx,2013-02-10 16:41:00,
2013-02-10 11:43:00,71.8,61.0,30.28,East,96,16.7,19.2,68,0.00,,,1.01,TxWx,2013-02-10 16:43:00,
2013-02-10 11:46:00,71.7,61.0,30.28,ESE,118,18.6,18.6,68,0.00,,,1.01,TxWx,2013-02-10 16:46:00,
2013-02-10 11:47:00,71.7,61.0,30.28,East,96,18.6,18.6,68,0.00,,,1.01,TxWx,2013-02-10 16:47:00,
2013-02-10 11:49:00,72.0,61.0,30.28,East,96,16.1,17.9,69,0.00,,,1.01,TxWx,2013-02-10 16:49:00,
2013-02-10 11:52:00,71.4,59.0,30.28,ENE,73,16.1,17.9,66,0.00,,,1.01,TxWx,2013-02-10 16:52:00,
2013-02-10 11:53:00,71.4,59.0,30.28,East,96,17.3,17.3,67,0.00,,,1.01,TxWx,2013-02-10 16:53:00,
2013-02-10 11:54:00,71.6,60.0,30.28,East,96,18.6,18.6,66,0.00,,,1.01,TxWx,2013-02-10 16:54:00,
2013-02-10 11:59:00,71.5,60.0,30.28,East,96,17.3,19.2,67,0.00,,,1.01,TxWx,2013-02-10 16:59:00,
2013-02-10 12:00:00,71.7,60.0,30.28,East,96,16.7,17.3,67,0.00,,,1.01,TxWx,2013-02-10 17:00:00,
2013-02-10 12:04:00,71.7,61.0,30.28,ESE,118,22.3,22.3,68,0.00,,,1.01,TxWx,2013-02-10 17:04:00,
2013-02-10 12:05:00,71.7,61.0,30.28,ESE,118,14.9,16.7,69,0.00,,,1.01,TxWx,2013-02-10 17:05:00,
2013-02-10 12:07:00,72.0,61.0,30.28,East,96,19.8,19.8,70,0.00,,,1.01,TxWx,2013-02-10 17:07:00,
2013-02-10 12:10:00,71.4,60.0,30.28,East,96,22.9,22.9,68,0.00,,,1.01,TxWx,2013-02-10 17:10:00,
2013-02-10 12:11:00,71.7,60.0,30.28,East,96,21.0,21.0,67,0.00,,,1.01,TxWx,2013-02-10 17:11:00,
2013-02-10 12:13:00,71.6,60.0,30.28,East,96,15.5,15.5,67,0.00,,,1.01,TxWx,2013-02-10 17:13:00,
2013-02-10 12:16:00,71.6,60.0,30.28,East,96,17.9,17.9,67,0.00,,,1.01,TxWx,2013-02-10 17:16:00,
2013-02-10 12:19:00,71.3,59.0,30.28,East,96,22.3,22.3,66,0.00,,,1.01,TxWx,2013-02-10 17:19:00,
2013-02-10 12:22:00,71.7,61.0,30.28,ENE,73,16.7,17.3,68,0.00,,,1.01,TxWx,2013-02-10 17:22:00,
2013-02-10 12:25:00,71.5,61.0,30.27,East,96,19.2,19.2,68,0.00,,,1.01,TxWx,2013-02-10 17:25:00,
2013-02-10 12:26:00,71.8,61.0,30.27,East,96,21.0,21.0,69,0.00,,,1.01,TxWx,2013-02-10 17:26:00,
2013-02-10 12:27:00,71.3,59.0,30.27,ESE,118,22.3,23.5,67,0.00,,,1.01,TxWx,2013-02-10 17:27:00,
2013-02-10 12:32:00,71.6,61.0,30.27,East,96,15.5,16.7,68,0.00,,,1.01,TxWx,2013-02-10 17:32:00,
2013-02-10 12:33:00,71.5,61.0,30.27,East,96,21.0,21.0,68,0.00,,,1.01,TxWx,2013-02-10 17:33:00,
2013-02-10 12:34:00,71.6,61.0,30.27,ENE,73,18.6,21.7,68,0.00,,,1.01,TxWx,2013-02-10 17:34:00,
2013-02-10 12:38:00,71.6,61.0,30.27,ESE,118,16.7,18.6,68,0.00,,,1.01,TxWx,2013-02-10 17:38:00,
2013-02-10 12:39:00,71.5,61.0,30.27,East,96,16.1,19.8,69,0.00,,,1.01,TxWx,2013-02-10 17:39:00,
2013-02-10 12:40:00,71.6,61.0,30.27,ESE,118,17.3,17.9,68,0.00,,,1.01,TxWx,2013-02-10 17:40:00,
2013-02-10 12:43:00,71.2,59.0,30.27,East,96,19.2,19.8,67,0.00,,,1.01,TxWx,2013-02-10 17:43:00,
2013-02-10 12:44:00,71.3,59.0,30.27,East,96,16.1,16.1,67,0.00,,,1.01,TxWx,2013-02-10 17:44:00,
2013-02-10 12:45:00,71.6,61.0,30.27,East,96,21.7,21.7,68,0.00,,,1.01,TxWx,2013-02-10 17:45:00,
2013-02-10 12:49:00,71.3,60.0,30.26,East,96,16.1,19.2,68,0.00,,,1.01,TxWx,2013-02-10 17:49:00,
2013-02-10 12:54:00,71.7,61.0,30.26,East,96,15.5,16.7,70,0.00,,,1.01,TxWx,2013-02-10 17:54:00,
2013-02-10 12:55:00,71.7,62.0,30.26,East,96,14.2,15.5,70,0.00,,,1.01,TxWx,2013-02-10 17:55:00,
2013-02-10 13:00:00,71.4,60.0,30.26,East,96,20.4,21.0,69,0.00,,,1.01,TxWx,2013-02-10 18:00:00,
2013-02-10 13:01:00,71.2,60.0,30.26,East,96,20.4,22.3,69,0.00,,,1.01,TxWx,2013-02-10 18:01:00,
2013-02-10 13:06:00,71.3,60.0,30.25,ESE,118,18.6,18.6,68,0.00,,,1.01,TxWx,2013-02-10 18:06:00,
2013-02-10 13:07:00,71.5,60.0,30.25,East,96,14.2,16.7,68,0.00,,,1.01,TxWx,2013-02-10 18:07:00,
2013-02-10 13:11:00,71.6,61.0,30.25,East,96,17.3,21.7,70,0.00,,,1.01,TxWx,2013-02-10 18:11:00,
2013-02-10 13:12:00,71.6,61.0,30.25,East,96,18.6,19.8,69,0.00,,,1.01,TxWx,2013-02-10 18:12:00,
2013-02-10 13:17:00,71.7,61.0,30.25,ENE,73,17.3,20.4,70,0.00,,,1.01,TxWx,2013-02-10 18:17:00,
2013-02-10 13:18:00,71.5,60.0,30.25,ESE,118,19.2,19.2,69,0.00,,,1.01,TxWx,2013-02-10 18:18:00,
2013-02-10 13:19:00,71.7,61.0,30.25,East,96,19.2,19.2,69,0.00,,,1.01,TxWx,2013-02-10 18:19:00,
2013-02-10 13:22:00,71.5,61.0,30.25,East,96,14.9,14.9,68,0.00,,,1.01,TxWx,2013-02-10 18:22:00,
2013-02-10 13:23:00,71.5,61.0,30.25,ESE,118,16.7,16.7,69,0.00,,,1.01,TxWx,2013-02-10 18:23:00,
2013-02-10 13:24:00,71.6,61.0,30.25,East,96,17.9,18.6,69,0.00,,,1.01,TxWx,2013-02-10 18:24:00,
2013-02-10 13:25:00,71.8,61.0,30.25,East,96,16.7,17.9,69,0.00,,,1.01,TxWx,2013-02-10 18:25:00,
2013-02-10 13:27:00,71.5,61.0,30.25,ESE,118,18.6,18.6,69,0.00,,,1.01,TxWx,2013-02-10 18:27:00,
2013-02-10 13:28:00,72.0,62.0,30.25,East,96,18.6,18.6,71,0.00,,,1.01,TxWx,2013-02-10 18:28:00,
2013-02-10 13:31:00,71.8,61.0,30.25,East,96,13.0,14.2,69,0.00,,,1.01,TxWx,2013-02-10 18:31:00,
2013-02-10 13:33:00,71.7,62.0,30.25,East,96,16.1,16.1,70,0.00,,,1.01,TxWx,2013-02-10 18:33:00,
2013-02-10 13:36:00,71.8,61.0,30.24,East,96,19.8,19.8,70,0.00,,,1.01,TxWx,2013-02-10 18:36:00,
2013-02-10 13:38:00,71.8,61.0,30.24,ESE,118,18.6,18.6,69,0.00,,,1.01,TxWx,2013-02-10 18:38:00,
2013-02-10 13:39:00,71.6,61.0,30.24,East,96,17.9,19.2,69,0.00,,,1.01,TxWx,2013-02-10 18:39:00,
2013-02-10 13:42:00,71.5,61.0,30.24,East,96,18.6,22.3,68,0.00,,,1.01,TxWx,2013-02-10 18:42:00,
2013-02-10 13:43:00,71.7,61.0,30.24,East,96,19.2,19.8,68,0.00,,,1.01,TxWx,2013-02-10 18:43:00,
2013-02-10 13:44:00,71.8,61.0,30.24,ENE,73,22.9,22.9,70,0.00,,,1.01,TxWx,2013-02-10 18:44:00,
2013-02-10 13:48:00,72.2,62.0,30.24,East,96,15.5,15.5,71,0.00,,,1.01,TxWx,2013-02-10 18:48:00,
2013-02-10 13:50:00,71.6,61.0,30.24,East,96,17.9,18.6,69,0.00,,,1.01,TxWx,2013-02-10 18:50:00,
2013-02-10 13:54:00,71.7,61.0,30.24,East,96,21.0,22.3,70,0.00,,,1.01,TxWx,2013-02-10 18:54:00,
2013-02-10 13:55:00,72.1,62.0,30.24,ESE,118,17.9,17.9,70,0.00,,,1.01,TxWx,2013-02-10 18:55:00,
2013-02-10 13:56:00,71.8,61.0,30.24,East,96,20.4,20.4,70,0.00,,,1.01,TxWx,2013-02-10 18:56:00,
2013-02-10 13:59:00,72.0,60.0,30.24,SE,141,16.7,17.3,67,0.00,,,1.01,TxWx,2013-02-10 18:59:00,
2013-02-10 14:00:00,72.2,60.0,30.23,East,96,16.1,16.1,67,0.00,,,1.01,TxWx,2013-02-10 19:00:00,
2013-02-10 14:01:00,72.0,61.0,30.23,East,96,17.9,17.9,68,0.00,,,1.01,TxWx,2013-02-10 19:01:00,
2013-02-10 14:05:00,72.5,61.0,30.23,East,96,15.5,15.5,67,0.00,,,1.01,TxWx,2013-02-10 19:05:00,
2013-02-10 14:06:00,72.5,61.0,30.23,East,96,20.4,20.4,67,0.00,,,1.01,TxWx,2013-02-10 19:06:00,
2013-02-10 14:07:00,72.3,60.0,30.23,ESE,118,20.4,20.4,67,0.00,,,1.01,TxWx,2013-02-10 19:07:00,
2013-02-10 14:08:00,72.1,60.0,30.23,ESE,118,17.3,19.2,66,0.00,,,1.01,TxWx,2013-02-10 19:08:00,
2013-02-10 14:10:00,72.2,60.0,30.23,ESE,118,15.5,15.5,66,0.00,,,1.01,TxWx,2013-02-10 19:10:00,
2013-02-10 14:12:00,72.2,60.0,30.23,ESE,118,15.5,16.7,67,0.00,,,1.01,TxWx,2013-02-10 19:12:00,
2013-02-10 14:13:00,72.3,60.0,30.23,East,96,15.5,15.5,66,0.00,,,1.01,TxWx,2013-02-10 19:13:00,
2013-02-10 14:15:00,72.2,60.0,30.23,ESE,118,18.6,21.7,67,0.00,,,1.01,TxWx,2013-02-10 19:15:00,
2013-02-10 14:16:00,72.0,60.0,30.23,ESE,118,21.0,21.0,67,0.00,,,1.01,TxWx,2013-02-10 19:16:00,
2013-02-10 14:18:00,72.1,60.0,30.22,ESE,118,19.8,19.8,66,0.00,,,1.01,TxWx,2013-02-10 19:18:00,
2013-02-10 14:20:00,72.1,60.0,30.22,ESE,118,21.7,21.7,65,0.00,,,1.01,TxWx,2013-02-10 19:20:00,
2013-02-10 14:21:00,72.1,60.0,30.22,East,96,21.7,21.7,66,0.00,,,1.01,TxWx,2013-02-10 19:21:00,
2013-02-10 14:24:00,71.7,60.0,30.22,ESE,118,21.7,21.7,65,0.00,,,1.01,TxWx,2013-02-10 19:24:00,
2013-02-10 14:25:00,72.3,61.0,30.23,East,96,19.8,19.8,68,0.00,,,1.01,TxWx,2013-02-10 19:25:00,
2013-02-10 14:27:00,72.4,61.0,30.22,ESE,118,14.9,17.9,68,0.00,,,1.01,TxWx,2013-02-10 19:27:00,
2013-02-10 14:29:00,72.3,60.0,30.22,East,96,21.0,21.0,67,0.00,,,1.01,TxWx,2013-02-10 19:29:00,
2013-02-10 14:30:00,72.5,61.0,30.22,ESE,118,17.9,17.9,68,0.00,,,1.01,TxWx,2013-02-10 19:30:00,
2013-02-10 14:33:00,72.1,60.0,30.22,East,96,20.4,20.4,66,0.00,,,1.01,TxWx,2013-02-10 19:33:00,
2013-02-10 14:35:00,71.9,60.0,30.22,ESE,118,21.7,22.9,65,0.00,,,1.01,TxWx,2013-02-10 19:35:00,
2013-02-10 14:36:00,72.0,60.0,30.22,East,96,20.4,20.4,66,0.00,,,1.01,TxWx,2013-02-10 19:36:00,
2013-02-10 14:39:00,72.2,60.0,30.22,East,96,19.8,20.4,67,0.00,,,1.01,TxWx,2013-02-10 19:39:00,
2013-02-10 14:41:00,72.0,60.0,30.22,ESE,118,18.6,19.2,66,0.00,,,1.01,TxWx,2013-02-10 19:41:00,
2013-02-10 14:46:00,71.8,60.0,30.22,ESE,118,15.5,18.6,66,0.00,,,1.01,TxWx,2013-02-10 19:46:00,
2013-02-10 14:48:00,72.2,61.0,30.22,East,96,16.7,19.2,68,0.00,,,1.01,TxWx,2013-02-10 19:48:00,
2013-02-10 14:51:00,72.1,60.0,30.22,East,96,18.6,19.8,67,0.00,,,1.01,TxWx,2013-02-10 19:51:00,
2013-02-10 14:55:00,72.2,61.0,30.22,East,96,15.5,17.3,68,0.00,,,1.01,TxWx,2013-02-10 19:55:00,
2013-02-10 14:56:00,72.0,60.0,30.22,ESE,118,16.1,17.3,66,0.00,,,1.01,TxWx,2013-02-10 19:56:00,
2013-02-10 14:57:00,72.1,60.0,30.22,SE,141,14.9,17.3,66,0.00,,,1.01,TxWx,2013-02-10 19:57:00,
2013-02-10 15:02:00,72.1,60.0,30.22,East,96,16.7,16.7,66,0.00,,,1.01,TxWx,2013-02-10 20:02:00,
2013-02-10 15:03:00,72.3,60.0,30.22,ESE,118,13.0,13.0,66,0.00,,,1.01,TxWx,2013-02-10 20:03:00,
2013-02-10 15:05:00,72.3,60.0,30.22,ESE,118,15.5,15.5,66,0.00,,,1.01,TxWx,2013-02-10 20:05:00,
2013-02-10 15:06:00,72.3,60.0,30.22,ESE,118,16.7,17.9,67,0.00,,,1.01,TxWx,2013-02-10 20:06:00,
2013-02-10 15:08:00,72.7,61.0,30.22,ESE,118,16.1,16.1,67,0.00,,,1.01,TxWx,2013-02-10 20:08:00,
2013-02-10 15:09:00,72.2,60.0,30.22,ESE,118,19.8,19.8,66,0.00,,,1.01,TxWx,2013-02-10 20:09:00,
2013-02-10 15:11:00,72.1,60.0,30.22,ESE,118,17.3,19.2,66,0.00,,,1.01,TxWx,2013-02-10 20:11:00,
2013-02-10 15:12:00,72.2,60.0,30.22,ESE,118,12.4,16.1,65,0.00,,,1.01,TxWx,2013-02-10 20:12:00,
2013-02-10 15:13:00,72.8,61.0,30.22,ESE,118,14.9,14.9,67,0.00,,,1.01,TxWx,2013-02-10 20:13:00,
2013-02-10 15:16:00,72.5,60.0,30.21,ESE,118,20.4,20.4,65,0.00,,,1.01,TxWx,2013-02-10 20:16:00,
2013-02-10 15:18:00,72.3,60.0,30.21,ESE,118,18.6,19.2,66,0.00,,,1.01,TxWx,2013-02-10 20:18:00,
2013-02-10 15:19:00,72.3,60.0,30.21,ESE,118,18.6,21.7,66,0.00,,,1.01,TxWx,2013-02-10 20:19:00,
2013-02-10 15:23:00,72.4,60.0,30.21,East,96,16.7,16.7,67,0.00,,,1.01,TxWx,2013-02-10 20:23:00,
2013-02-10 15:24:00,72.5,62.0,30.21,East,96,17.3,17.3,68,0.00,,,1.01,TxWx,2013-02-10 20:24:00,
2013-02-10 15:25:00,72.5,61.0,30.21,SE,141,15.5,15.5,67,0.00,,,1.01,TxWx,2013-02-10 20:25:00,
2013-02-10 15:30:00,72.2,60.0,30.21,ESE,118,17.9,17.9,67,0.00,,,1.01,TxWx,2013-02-10 20:30:00,
2013-02-10 15:31:00,72.8,62.0,30.22,East,96,16.1,16.1,68,0.00,,,1.01,TxWx,2013-02-10 20:31:00,
2013-02-10 15:32:00,72.2,60.0,30.22,ESE,118,16.7,16.7,67,0.00,,,1.01,TxWx,2013-02-10 20:32:00,
2013-02-10 15:35:00,72.2,61.0,30.21,ESE,118,16.7,17.9,68,0.00,,,1.01,TxWx,2013-02-10 20:35:00,
2013-02-10 15:36:00,72.4,61.0,30.21,ESE,118,17.3,17.3,69,0.00,,,1.01,TxWx,2013-02-10 20:36:00,
2013-02-10 15:37:00,72.5,62.0,30.22,ESE,118,15.5,16.7,69,0.00,,,1.01,TxWx,2013-02-10 20:37:00,
2013-02-10 15:41:00,72.3,60.0,30.21,ESE,118,12.4,14.2,67,0.00,,,1.01,TxWx,2013-02-10 20:41:00,
2013-02-10 15:42:00,72.2,60.0,30.21,East,96,20.4,20.4,67,0.00,,,1.01,TxWx,2013-02-10 20:42:00,
2013-02-10 15:44:00,72.3,60.0,30.21,ESE,118,13.6,14.2,67,0.00,,,1.01,TxWx,2013-02-10 20:44:00,
2013-02-10 15:46:00,72.2,61.0,30.21,East,96,18.6,19.8,68,0.00,,,1.01,TxWx,2013-02-10 20:46:00,
2013-02-10 15:48:00,72.2,61.0,30.21,East,96,14.2,14.2,68,0.00,,,1.01,TxWx,2013-02-10 20:48:00,
2013-02-10 15:49:00,72.3,61.0,30.21,East,96,18.6,18.6,68,0.00,,,1.01,TxWx,2013-02-10 20:49:00,
2013-02-10 15:50:00,72.4,61.0,30.21,East,96,14.2,14.2,69,0.00,,,1.01,TxWx,2013-02-10 20:50:00,
2013-02-10 15:51:00,72.1,61.0,30.21,ESE,118,17.3,17.3,68,0.00,,,1.01,TxWx,2013-02-10 20:51:00,
2013-02-10 15:55:00,72.1,61.0,30.21,ESE,118,17.9,17.9,68,0.00,,,1.01,TxWx,2013-02-10 20:55:00,
2013-02-10 15:56:00,72.2,61.0,30.21,East,96,15.5,15.5,68,0.00,,,1.01,TxWx,2013-02-10 20:56:00,
2013-02-10 16:00:00,72.2,60.0,30.21,ESE,118,17.3,17.9,67,0.00,,,1.01,TxWx,2013-02-10 21:00:00,
2013-02-10 16:01:00,72.0,60.0,30.21,ESE,118,14.9,16.1,67,0.00,,,1.01,TxWx,2013-02-10 21:01:00,
2013-02-10 16:02:00,72.0,60.0,30.21,East,96,14.9,16.1,67,0.00,,,1.01,TxWx,2013-02-10 21:02:00,
2013-02-10 16:05:00,72.0,60.0,30.21,ESE,118,15.5,18.6,67,0.00,,,1.01,TxWx,2013-02-10 21:05:00,
2013-02-10 16:07:00,71.9,60.0,30.21,East,96,18.6,18.6,67,0.00,,,1.01,TxWx,2013-02-10 21:07:00,
2013-02-10 16:11:00,72.2,61.0,30.21,East,96,13.6,15.5,68,0.00,,,1.01,TxWx,2013-02-10 21:11:00,
2013-02-10 16:12:00,72.2,61.0,30.21,ESE,118,14.2,16.1,68,0.00,,,1.01,TxWx,2013-02-10 21:12:00,
2013-02-10 16:16:00,72.1,61.0,30.21,East,96,19.8,20.4,68,0.00,,,1.01,TxWx,2013-02-10 21:16:00,
2013-02-10 16:17:00,72.1,60.0,30.21,ESE,118,14.2,16.1,67,0.00,,,1.01,TxWx,2013-02-10 21:17:00,
2013-02-10 16:19:00,72.3,61.0,30.21,SE,141,17.9,19.2,68,0.00,,,1.01,TxWx,2013-02-10 21:19:00,
2013-02-10 16:22:00,72.3,61.0,30.21,ESE,118,17.9,19.2,68,0.00,,,1.01,TxWx,2013-02-10 21:22:00,
2013-02-10 16:23:00,72.2,61.0,30.21,ESE,118,17.3,17.3,68,0.00,,,1.01,TxWx,2013-02-10 21:23:00,
2013-02-10 16:24:00,72.1,61.0,30.21,ESE,118,15.5,15.5,68,0.00,,,1.01,TxWx,2013-02-10 21:24:00,
2013-02-10 16:25:00,72.2,60.0,30.21,East,96,15.5,15.5,67,0.00,,,1.01,TxWx,2013-02-10 21:25:00,
2013-02-10 16:27:00,72.6,62.0,30.21,ESE,118,12.4,13.6,68,0.00,,,1.01,TxWx,2013-02-10 21:27:00,
2013-02-10 16:30:00,72.2,60.0,30.21,East,96,18.6,18.6,67,0.00,,,1.01,TxWx,2013-02-10 21:30:00,
2013-02-10 16:31:00,72.1,60.0,30.21,East,96,18.6,19.2,67,0.00,,,1.01,TxWx,2013-02-10 21:31:00,
2013-02-10 16:32:00,72.3,60.0,30.21,ESE,118,14.9,17.3,67,0.00,,,1.01,TxWx,2013-02-10 21:32:00,
2013-02-10 16:36:00,72.4,61.0,30.21,ESE,118,14.2,17.3,69,0.00,,,1.01,TxWx,2013-02-10 21:36:00,
2013-02-10 16:37:00,72.3,61.0,30.21,ESE,118,13.6,15.5,69,0.00,,,1.01,TxWx,2013-02-10 21:37:00,
2013-02-10 16:41:00,72.3,61.0,30.21,ESE,118,13.6,14.2,68,0.00,,,1.01,TxWx,2013-02-10 21:41:00,
2013-02-10 16:42:00,72.1,61.0,30.21,ESE,118,14.9,16.1,68,0.00,,,1.01,TxWx,2013-02-10 21:42:00,
2013-02-10 16:43:00,72.3,61.0,30.22,ESE,118,15.5,15.5,68,0.00,,,1.01,TxWx,2013-02-10 21:43:00,
2013-02-10 16:47:00,72.2,60.0,30.21,East,96,16.7,16.7,67,0.00,,,1.01,TxWx,2013-02-10 21:47:00,
2013-02-10 16:48:00,72.3,61.0,30.21,East,96,16.7,18.6,68,0.00,,,1.01,TxWx,2013-02-10 21:48:00,
2013-02-10 16:49:00,72.0,61.0,30.22,ESE,118,17.3,17.3,68,0.00,,,1.01,TxWx,2013-02-10 21:49:00,
2013-02-10 16:53:00,72.3,61.0,30.22,East,96,17.3,17.3,69,0.00,,,1.01,TxWx,2013-02-10 21:53:00,
2013-02-10 16:54:00,72.3,61.0,30.22,ESE,118,14.2,14.2,68,0.00,,,1.01,TxWx,2013-02-10 21:54:00,
2013-02-10 16:55:00,72.3,60.0,30.21,ESE,118,12.4,13.0,67,0.00,,,1.01,TxWx,2013-02-10 21:55:00,
2013-02-10 16:58:00,72.1,61.0,30.22,SE,141,13.6,16.7,69,0.00,,,1.01,TxWx,2013-02-10 21:58:00,
2013-02-10 17:00:00,72.2,61.0,30.22,ESE,118,14.2,14.9,68,0.00,,,1.01,TxWx,2013-02-10 22:00:00,
2013-02-10 17:03:00,72.6,62.0,30.22,SE,141,13.0,13.0,68,0.00,,,1.01,TxWx,2013-02-10 22:03:00,
2013-02-10 17:06:00,72.3,61.0,30.22,ESE,118,18.6,18.6,68,0.00,,,1.01,TxWx,2013-02-10 22:06:00,
2013-02-10 17:09:00,72.3,61.0,30.21,ESE,118,13.0,13.0,68,0.00,,,1.01,TxWx,2013-02-10 22:09:00,
2013-02-10 17:11:00,72.2,61.0,30.21,ESE,118,13.0,13.6,68,0.00,,,1.01,TxWx,2013-02-10 22:11:00,
2013-02-10 17:14:00,72.1,61.0,30.21,ESE,118,16.7,19.2,69,0.00,,,1.01,TxWx,2013-02-10 22:14:00,
2013-02-10 17:16:00,72.1,61.0,30.21,ESE,118,14.2,14.2,69,0.00,,,1.01,TxWx,2013-02-10 22:16:00,
2013-02-10 17:20:00,72.4,61.0,30.21,ESE,118,14.2,14.2,68,0.00,,,1.01,TxWx,2013-02-10 22:20:00,
2013-02-10 17:22:00,72.5,62.0,30.21,SE,141,16.1,16.1,70,0.00,,,1.01,TxWx,2013-02-10 22:22:00,
2013-02-10 17:25:00,72.1,61.0,30.21,ESE,118,16.1,16.1,68,0.00,,,1.01,TxWx,2013-02-10 22:25:00,
2013-02-10 17:28:00,72.1,61.0,30.21,ESE,118,19.8,20.4,68,0.00,,,1.01,TxWx,2013-02-10 22:28:00,
2013-02-10 17:29:00,72.7,62.0,30.21,ESE,118,14.9,14.9,70,0.00,,,1.01,TxWx,2013-02-10 22:29:00,
2013-02-10 17:30:00,72.3,61.0,30.21,ESE,118,17.9,17.9,70,0.00,,,1.01,TxWx,2013-02-10 22:30:00,
2013-02-10 17:32:00,72.2,61.0,30.21,ESE,118,21.0,21.0,68,0.00,,,1.01,TxWx,2013-02-10 22:32:00,
2013-02-10 17:33:00,72.5,61.0,30.21,ESE,118,13.6,17.3,69,0.00,,,1.01,TxWx,2013-02-10 22:33:00,
2013-02-10 17:36:00,72.3,61.0,30.21,East,96,15.5,17.9,69,0.00,,,1.01,TxWx,2013-02-10 22:36:00,
2013-02-10 17:37:00,72.2,61.0,30.21,ESE,118,16.7,16.7,69,0.00,,,1.01,TxWx,2013-02-10 22:37:00,
2013-02-10 17:39:00,72.0,61.0,30.21,ESE,118,17.9,18.6,68,0.00,,,1.01,TxWx,2013-02-10 22:39:00,
2013-02-10 17:40:00,72.1,61.0,30.21,East,96,18.6,19.8,68,0.00,,,1.01,TxWx,2013-02-10 22:40:00,
2013-02-10 17:42:00,72.4,61.0,30.21,ESE,118,17.3,17.3,69,0.00,,,1.01,TxWx,2013-02-10 22:42:00,
2013-02-10 17:43:00,72.3,61.0,30.21,ESE,118,17.9,19.2,69,0.00,,,1.01,TxWx,2013-02-10 22:43:00,
2013-02-10 17:45:00,72.3,61.0,30.22,ESE,118,18.6,19.8,69,0.00,,,1.01,TxWx,2013-02-10 22:45:00,
2013-02-10 17:47:00,72.2,61.0,30.21,East,96,20.4,22.9,68,0.00,,,1.01,TxWx,2013-02-10 22:47:00,
2013-02-10 17:48:00,72.0,61.0,30.21,ESE,118,21.7,22.9,68,0.00,,,1.01,TxWx,2013-02-10 22:48:00,
2013-02-10 17:50:00,72.5,62.0,30.21,East,96,14.9,15.5,69,0.00,,,1.01,TxWx,2013-02-10 22:50:00,
2013-02-10 17:53:00,72.1,61.0,30.20,ESE,118,20.4,21.0,68,0.00,,,1.01,TxWx,2013-02-10 22:53:00,
2013-02-10 17:54:00,72.2,60.0,30.20,ESE,118,20.4,22.3,67,0.00,,,1.01,TxWx,2013-02-10 22:54:00,
2013-02-10 17:56:00,72.5,61.0,30.21,East,96,14.9,15.5,68,0.00,,,1.01,TxWx,2013-02-10 22:56:00,
2013-02-10 17:59:00,72.6,62.0,30.21,ESE,118,15.5,15.5,69,0.00,,,1.01,TxWx,2013-02-10 22:59:00,
2013-02-10 18:00:00,72.9,63.0,30.21,East,96,15.5,15.5,71,0.00,,,1.01,TxWx,2013-02-10 23:00:00,
2013-02-10 18:01:00,72.3,61.0,30.21,East,96,17.9,17.9,69,0.00,,,1.01,TxWx,2013-02-10 23:01:00,
2013-02-10 18:04:00,72.4,61.0,30.21,ESE,118,17.3,17.3,69,0.00,,,1.01,TxWx,2013-02-10 23:04:00,
2013-02-10 18:06:00,72.5,62.0,30.21,ESE,118,19.2,19.2,69,0.00,,,1.01,TxWx,2013-02-10 23:06:00,
2013-02-10 18:08:00,72.3,60.0,30.21,East,96,14.2,16.7,67,0.00,,,1.01,TxWx,2013-02-10 23:08:00,
2013-02-10 18:09:00,72.3,60.0,30.21,East,96,16.1,16.1,66,0.00,,,1.01,TxWx,2013-02-10 23:09:00,
2013-02-10 18:11:00,72.4,61.0,30.21,ESE,118,15.5,16.1,68,0.00,,,1.01,TxWx,2013-02-10 23:11:00,
2013-02-10 18:12:00,72.4,60.0,30.21,East,96,14.9,15.5,67,0.00,,,1.01,TxWx,2013-02-10 23:12:00,
2013-02-10 18:14:00,72.7,62.0,30.21,ESE,118,15.5,15.5,69,0.00,,,1.01,TxWx,2013-02-10 23:14:00,
2013-02-10 18:15:00,72.5,61.0,30.21,East,96,17.9,17.9,70,0.00,,,1.01,TxWx,2013-02-10 23:15:00,
2013-02-10 18:18:00,72.4,61.0,30.21,East,96,19.2,19.2,69,0.00,,,1.01,TxWx,2013-02-10 23:18:00,
2013-02-10 18:19:00,72.6,62.0,30.21,ESE,118,15.5,15.5,69,0.00,,,1.01,TxWx,2013-02-10 23:19:00,
2013-02-10 18:20:00,72.5,62.0,30.21,ESE,118,14.2,17.9,70,0.00,,,1.01,TxWx,2013-02-10 23:20:00,
2013-02-10 18:23:00,72.5,60.0,30.21,ESE,118,18.6,18.6,67,0.00,,,1.01,TxWx,2013-02-10 23:23:00,
2013-02-10 18:25:00,72.3,61.0,30.21,East,96,15.5,15.5,68,0.00,,,1.01,TxWx,2013-02-10 23:25:00,
2013-02-10 18:28:00,72.6,62.0,30.21,SE,141,14.9,16.1,69,0.00,,,1.01,TxWx,2013-02-10 23:28:00,
2013-02-10 18:30:00,72.3,60.0,30.21,ESE,118,15.5,15.5,67,0.00,,,1.01,TxWx,2013-02-10 23:30:00,
2013-02-10 18:33:00,72.3,61.0,30.21,SE,141,15.5,17.3,68,0.00,,,1.01,TxWx,2013-02-10 23:33:00,
2013-02-10 18:34:00,72.4,61.0,30.21,ESE,118,13.6,17.3,68,0.00,,,1.01,TxWx,2013-02-10 23:34:00,
2013-02-10 18:36:00,72.3,61.0,30.21,ESE,118,17.3,19.2,69,0.00,,,1.01,TxWx,2013-02-10 23:36:00,
2013-02-10 18:39:00,72.2,60.0,30.21,ESE,118,16.1,16.1,67,0.00,,,1.01,TxWx,2013-02-10 23:39:00,
2013-02-10 18:40:00,72.3,61.0,30.21,East,96,13.6,13.6,68,0.00,,,1.01,TxWx,2013-02-10 23:40:00,
2013-02-10 18:41:00,72.6,62.0,30.21,ESE,118,19.2,19.2,69,0.00,,,1.01,TxWx,2013-02-10 23:41:00,
2013-02-10 18:42:00,72.3,61.0,30.21,ESE,118,17.3,17.9,68,0.00,,,1.01,TxWx,2013-02-10 23:42:00,
2013-02-10 18:45:00,72.1,61.0,30.21,ESE,118,18.6,18.6,68,0.00,,,1.01,TxWx,2013-02-10 23:45:00,
2013-02-10 18:46:00,72.5,61.0,30.21,ESE,118,14.9,15.5,69,0.00,,,1.01,TxWx,2013-02-10 23:46:00,
2013-02-10 18:48:00,72.3,61.0,30.21,ESE,118,15.5,18.6,70,0.00,,,1.01,TxWx,2013-02-10 23:48:00,
2013-02-10 18:51:00,72.3,61.0,30.21,ESE,118,16.1,16.7,68,0.00,,,1.01,TxWx,2013-02-10 23:51:00,
2013-02-10 18:53:00,72.4,61.0,30.21,ESE,118,14.2,14.2,68,0.00,,,1.01,TxWx,2013-02-10 23:53:00,
2013-02-10 18:54:00,72.2,60.0,30.21,ESE,118,13.6,14.2,66,0.00,,,1.01,TxWx,2013-02-10 23:54:00,
2013-02-10 18:55:00,72.1,60.0,30.21,ESE,118,13.0,14.2,66,0.00,,,1.01,TxWx,2013-02-10 23:55:00,
2013-02-10 18:57:00,72.3,60.0,30.21,ESE,118,14.9,14.9,67,0.00,,,1.01,TxWx,2013-02-10 23:57:00,
2013-02-10 18:59:00,72.5,62.0,30.22,ESE,118,13.0,14.9,68,0.00,,,1.01,TxWx,2013-02-10 23:59:00,
2013-02-10 19:00:00,72.5,61.0,30.22,ESE,118,13.6,14.9,67,0.00,,,1.01,TxWx,2013-02-11 00:00:00,
2013-02-10 19:04:00,72.4,61.0,30.22,ESE,118,16.7,16.7,68,0.00,,,1.01,TxWx,2013-02-11 00:04:00,
2013-02-10 19:05:00,72.3,61.0,30.22,ESE,118,14.2,15.5,68,0.00,,,1.01,TxWx,2013-02-11 00:05:00,
2013-02-10 19:06:00,72.3,61.0,30.22,SE,141,17.3,19.2,68,0.00,,,1.01,TxWx,2013-02-11 00:06:00,
2013-02-10 19:07:00,72.1,60.0,30.22,East,96,16.7,19.2,67,0.00,,,1.01,TxWx,2013-02-11 00:07:00,
2013-02-10 19:10:00,72.6,62.0,30.22,ESE,118,12.4,12.4,69,0.00,,,1.01,TxWx,2013-02-11 00:10:00,
2013-02-10 19:12:00,72.4,61.0,30.22,ESE,118,13.6,14.9,69,0.00,,,1.01,TxWx,2013-02-11 00:12:00,
2013-02-10 19:15:00,72.4,61.0,30.22,ESE,118,18.6,18.6,69,0.00,,,1.01,TxWx,2013-02-11 00:15:00,
2013-02-10 19:16:00,72.5,61.0,30.22,ESE,118,16.1,17.3,69,0.00,,,1.01,TxWx,2013-02-11 00:16:00,
2013-02-10 19:17:00,72.2,61.0,30.23,ESE,118,15.5,15.5,68,0.00,,,1.01,TxWx,2013-02-11 00:17:00,
2013-02-10 19:18:00,72.4,60.0,30.22,East,96,11.8,13.6,67,0.00,,,1.01,TxWx,2013-02-11 00:18:00,
2013-02-10 19:21:00,72.3,60.0,30.23,ESE,118,14.2,15.5,67,0.00,,,1.01,TxWx,2013-02-11 00:21:00,
2013-02-10 19:24:00,72.7,62.0,30.23,ESE,118,13.0,13.0,68,0.00,,,1.01,TxWx,2013-02-11 00:24:00,
2013-02-10 19:27:00,72.3,60.0,30.23,ESE,118,17.9,19.2,67,0.00,,,1.01,TxWx,2013-02-11 00:27:00,
2013-02-10 19:30:00,72.4,61.0,30.23,ESE,118,14.9,17.3,68,0.00,,,1.01,TxWx,2013-02-11 00:30:00,
2013-02-10 19:32:00,72.5,62.0,30.23,ESE,118,17.9,19.8,69,0.00,,,1.01,TxWx,2013-02-11 00:32:00,
2013-02-10 19:33:00,72.4,60.0,30.23,ESE,118,15.5,15.5,67,0.00,,,1.01,TxWx,2013-02-11 00:33:00,
2013-02-10 19:36:00,72.8,63.0,30.23,ESE,118,13.0,16.7,70,0.00,,,1.01,TxWx,2013-02-11 00:36:00,
2013-02-10 19:38:00,72.6,62.0,30.23,East,96,12.4,14.2,68,0.00,,,1.01,TxWx,2013-02-11 00:38:00,
2013-02-10 19:39:00,72.7,62.0,30.23,East,96,14.9,15.5,68,0.00,,,1.01,TxWx,2013-02-11 00:39:00,
2013-02-10 19:42:00,72.4,61.0,30.23,East,96,13.0,14.9,69,0.00,,,1.01,TxWx,2013-02-11 00:42:00,
2013-02-10 19:43:00,72.4,60.0,30.23,ESE,118,11.8,11.8,67,0.00,,,1.01,TxWx,2013-02-11 00:43:00,
2013-02-10 19:44:00,72.5,61.0,30.23,ESE,118,15.5,17.3,68,0.00,,,1.01,TxWx,2013-02-11 00:44:00,
2013-02-10 19:45:00,72.6,62.0,30.23,ESE,118,14.9,14.9,68,0.00,,,1.01,TxWx,2013-02-11 00:45:00,
2013-02-10 19:48:00,72.4,61.0,30.23,ESE,118,16.1,16.1,68,0.00,,,1.01,TxWx,2013-02-11 00:48:00,
2013-02-10 19:50:00,72.5,62.0,30.24,SE,141,13.6,15.5,69,0.00,,,1.01,TxWx,2013-02-11 00:50:00,
2013-02-10 19:53:00,72.6,62.0,30.24,East,96,12.4,12.4,68,0.00,,,1.01,TxWx,2013-02-11 00:53:00,
2013-02-10 19:54:00,72.5,62.0,30.24,East,96,15.5,15.5,68,0.00,,,1.01,TxWx,2013-02-11 00:54:00,
2013-02-10 19:55:00,72.5,62.0,30.24,ESE,118,19.2,19.2,68,0.00,,,1.01,TxWx,2013-02-11 00:55:00,
2013-02-10 19:58:00,72.5,60.0,30.24,ESE,118,13.6,14.2,67,0.00,,,1.01,TxWx,2013-02-11 00:58:00,
2013-02-10 19:59:00,72.5,61.0,30.24,ESE,118,11.8,13.0,66,0.00,,,1.01,TxWx,2013-02-11 00:59:00,
2013-02-10 20:01:00,72.7,61.0,30.24,ESE,118,14.9,14.9,67,0.00,,,1.01,TxWx,2013-02-11 01:01:00,
2013-02-10 20:02:00,72.8,62.0,30.24,ESE,118,12.4,12.4,68,0.00,,,1.01,TxWx,2013-02-11 01:02:00,
2013-02-10 20:05:00,72.8,62.0,30.25,East,96,11.1,11.8,68,0.00,,,1.01,TxWx,2013-02-11 01:05:00,
2013-02-10 20:07:00,72.6,62.0,30.24,ESE,118,15.5,15.5,68,0.00,,,1.01,TxWx,2013-02-11 01:07:00,
2013-02-10 20:08:00,72.6,61.0,30.24,ESE,118,11.8,12.4,67,0.00,,,1.01,TxWx,2013-02-11 01:08:00,
2013-02-10 20:11:00,72.6,62.0,30.24,ESE,118,14.2,14.2,68,0.00,,,1.01,TxWx,2013-02-11 01:11:00,
2013-02-10 20:12:00,72.5,60.0,30.25,East,96,13.0,14.2,67,0.00,,,1.01,TxWx,2013-02-11 01:12:00,
2013-02-10 20:13:00,72.6,61.0,30.24,ESE,118,13.6,14.9,67,0.00,,,1.01,TxWx,2013-02-11 01:13:00,
2013-02-10 20:18:00,72.8,62.0,30.25,East,96,13.6,13.6,68,0.00,,,1.01,TxWx,2013-02-11 01:18:00,
2013-02-10 20:19:00,72.7,62.0,30.24,ESE,118,11.8,13.6,68,0.00,,,1.01,TxWx,2013-02-11 01:19:00,
2013-02-10 20:20:00,72.4,60.0,30.24,ESE,118,14.2,14.9,67,0.00,,,1.01,TxWx,2013-02-11 01:20:00,
2013-02-10 20:24:00,72.6,61.0,30.24,ESE,118,14.2,14.2,67,0.00,,,1.01,TxWx,2013-02-11 01:24:00,
2013-02-10 20:25:00,72.5,61.0,30.24,ESE,118,13.6,16.1,68,0.00,,,1.01,TxWx,2013-02-11 01:25:00,
2013-02-10 20:26:00,72.6,62.0,30.24,ESE,118,19.8,19.8,69,0.00,,,1.01,TxWx,2013-02-11 01:26:00,
2013-02-10 20:30:00,72.7,62.0,30.24,ESE,118,15.5,15.5,70,0.00,,,1.01,TxWx,2013-02-11 01:30:00,
2013-02-10 20:32:00,72.3,60.0,30.24,ESE,118,13.0,13.0,67,0.00,,,1.01,TxWx,2013-02-11 01:32:00,
2013-02-10 20:35:00,72.5,62.0,30.25,ESE,118,13.6,14.9,68,0.00,,,1.01,TxWx,2013-02-11 01:35:00,
2013-02-10 20:36:00,72.7,62.0,30.24,ESE,118,12.4,13.6,68,0.00,,,1.01,TxWx,2013-02-11 01:36:00,
2013-02-10 20:38:00,72.4,61.0,30.24,ESE,118,15.5,16.1,68,0.00,,,1.01,TxWx,2013-02-11 01:38:00,
2013-02-10 20:40:00,72.4,60.0,30.24,ESE,118,17.9,17.9,67,0.00,,,1.01,TxWx,2013-02-11 01:40:00,
2013-02-10 20:41:00,72.6,62.0,30.24,ESE,118,13.0,13.6,68,0.00,,,1.01,TxWx,2013-02-11 01:41:00,
2013-02-10 20:43:00,72.3,61.0,30.24,ESE,118,21.0,21.0,68,0.00,,,1.01,TxWx,2013-02-11 01:43:00,
2013-02-10 20:46:00,72.3,61.0,30.24,ESE,118,13.6,14.9,68,0.00,,,1.01,TxWx,2013-02-11 01:46:00,
2013-02-10 20:47:00,72.4,61.0,30.24,East,96,11.8,13.0,68,0.00,,,1.01,TxWx,2013-02-11 01:47:00,
2013-02-10 20:48:00,72.8,62.0,30.24,ESE,118,14.9,14.9,69,0.00,,,1.01,TxWx,2013-02-11 01:48:00,
2013-02-10 20:52:00,72.3,60.0,30.24,ESE,118,19.2,19.2,67,0.00,,,1.01,TxWx,2013-02-11 01:52:00,
2013-02-10 20:54:00,72.5,62.0,30.24,ESE,118,14.2,17.3,68,0.00,,,1.01,TxWx,2013-02-11 01:54:00,
2013-02-10 20:57:00,72.3,60.0,30.25,ESE,118,16.1,16.1,67,0.00,,,1.01,TxWx,2013-02-11 01:57:00,
2013-02-10 20:58:00,72.4,60.0,30.24,SE,141,15.5,17.9,67,0.00,,,1.01,TxWx,2013-02-11 01:58:00,
2013-02-10 21:00:00,72.4,61.0,30.25,ESE,118,11.1,13.0,68,0.00,,,1.01,TxWx,2013-02-11 02:00:00,
2013-02-10 21:02:00,72.3,61.0,30.25,ESE,118,13.0,14.2,68,0.00,,,1.01,TxWx,2013-02-11 02:02:00,
2013-02-10 21:03:00,72.6,62.0,30.25,ESE,118,16.1,16.1,69,0.00,,,1.01,TxWx,2013-02-11 02:03:00,
2013-02-10 21:04:00,72.5,62.0,30.24,ESE,118,13.6,16.1,69,0.00,,,1.01,TxWx,2013-02-11 02:04:00,
2013-02-10 21:05:00,72.5,62.0,30.25,SE,141,16.7,16.7,68,0.00,,,1.01,TxWx,2013-02-11 02:05:00,
2013-02-10 21:08:00,72.2,60.0,30.24,ESE,118,16.1,17.3,67,0.00,,,1.01,TxWx,2013-02-11 02:08:00,
2013-02-10 21:09:00,72.5,61.0,30.25,ESE,118,19.2,19.2,68,0.00,,,1.01,TxWx,2013-02-11 02:09:00,
2013-02-10 21:11:00,72.5,61.0,30.24,ESE,118,19.8,19.8,67,0.00,,,1.01,TxWx,2013-02-11 02:11:00,
2013-02-10 21:13:00,72.6,62.0,30.25,East,96,17.3,17.3,68,0.00,,,1.01,TxWx,2013-02-11 02:13:00,
2013-02-10 21:14:00,72.4,60.0,30.24,East,96,20.4,20.4,67,0.00,,,1.01,TxWx,2013-02-11 02:14:00,
2013-02-10 21:16:00,72.6,62.0,30.24,ESE,118,13.6,17.9,68,0.00,,,1.01,TxWx,2013-02-11 02:16:00,
2013-02-10 21:19:00,72.6,61.0,30.24,SE,141,15.5,15.5,67,0.00,,,1.01,TxWx,2013-02-11 02:19:00,
2013-02-10 21:20:00,72.4,60.0,30.24,SE,141,14.9,14.9,67,0.00,,,1.01,TxWx,2013-02-11 02:20:00,
2013-02-10 21:21:00,72.4,60.0,30.24,East,96,12.4,14.9,67,0.00,,,1.01,TxWx,2013-02-11 02:21:00,
2013-02-10 21:26:00,72.4,60.0,30.24,East,96,14.9,17.3,67,0.00,,,1.01,TxWx,2013-02-11 02:26:00,
2013-02-10 21:27:00,72.6,62.0,30.24,East,96,14.2,16.7,68,0.00,,,1.01,TxWx,2013-02-11 02:27:00,
2013-02-10 21:29:00,72.5,61.0,30.24,East,96,14.9,16.7,67,0.00,,,1.01,TxWx,2013-02-11 02:29:00,
2013-02-10 21:32:00,72.5,61.0,30.25,ESE,118,17.9,17.9,67,0.00,,,1.01,TxWx,2013-02-11 02:32:00,
2013-02-10 21:33:00,72.4,60.0,30.25,ESE,118,16.1,17.9,67,0.00,,,1.01,TxWx,2013-02-11 02:33:00,
2013-02-10 21:34:00,72.4,60.0,30.25,ESE,118,16.1,16.1,66,0.00,,,1.01,TxWx,2013-02-11 02:34:00,
2013-02-10 21:35:00,72.3,60.0,30.25,East,96,19.8,19.8,66,0.00,,,1.01,TxWx,2013-02-11 02:35:00,
2013-02-10 21:38:00,72.6,62.0,30.25,East,96,14.9,14.9,68,0.00,,,1.01,TxWx,2013-02-11 02:38:00,
2013-02-10 21:39:00,72.6,62.0,30.25,East,96,16.7,18.6,68,0.00,,,1.01,TxWx,2013-02-11 02:39:00,
2013-02-10 21:40:00,72.4,61.0,30.25,ESE,118,16.7,19.2,68,0.00,,,1.01,TxWx,2013-02-11 02:40:00,
2013-02-10 21:45:00,72.5,62.0,30.25,ESE,118,14.2,14.2,68,0.00,,,1.01,TxWx,2013-02-11 02:45:00,
2013-02-10 21:46:00,72.4,60.0,30.25,ESE,118,14.2,14.2,67,0.00,,,1.01,TxWx,2013-02-11 02:46:00,
2013-02-10 21:47:00,72.4,61.0,30.25,ESE,118,13.6,15.5,68,0.00,,,1.01,TxWx,2013-02-11 02:47:00,
2013-02-10 21:51:00,72.4,60.0,30.25,SE,141,15.5,16.1,67,0.00,,,1.01,TxWx,2013-02-11 02:51:00,
2013-02-10 21:53:00,72.3,60.0,30.25,ESE,118,17.9,17.9,66,0.00,,,1.01,TxWx,2013-02-11 02:53:00,
2013-02-10 21:56:00,72.7,61.0,30.25,ESE,118,15.5,15.5,67,0.00,,,1.01,TxWx,2013-02-11 02:56:00,
2013-02-10 21:58:00,72.5,62.0,30.24,East,96,16.1,17.9,68,0.00,,,1.01,TxWx,2013-02-11 02:58:00,
2013-02-10 22:01:00,72.4,60.0,30.24,ESE,118,13.0,14.9,67,0.00,,,1.01,TxWx,2013-02-11 03:01:00,
2013-02-10 22:02:00,72.4,60.0,30.24,ESE,118,14.9,16.1,67,0.00,,,1.01,TxWx,2013-02-11 03:02:00,
2013-02-10 22:03:00,72.4,60.0,30.24,East,96,17.9,17.9,67,0.00,,,1.01,TxWx,2013-02-11 03:03:00,
2013-02-10 22:06:00,72.3,61.0,30.24,East,96,14.2,15.5,68,0.00,,,1.01,TxWx,2013-02-11 03:06:00,
2013-02-10 22:08:00,72.5,60.0,30.24,ESE,118,15.5,17.3,67,0.00,,,1.01,TxWx,2013-02-11 03:08:00,
2013-02-10 22:11:00,72.4,60.0,30.24,ESE,118,13.6,13.6,67,0.00,,,1.01,TxWx,2013-02-11 03:11:00,
2013-02-10 22:12:00,72.5,60.0,30.24,ESE,118,13.6,14.9,67,0.00,,,1.01,TxWx,2013-02-11 03:12:00,
2013-02-10 22:13:00,72.2,60.0,30.24,ESE,118,15.5,16.7,67,0.00,,,1.01,TxWx,2013-02-11 03:13:00,
2013-02-10 22:17:00,72.4,60.0,30.23,East,96,16.7,18.6,67,0.00,,,1.01,TxWx,2013-02-11 03:17:00,
2013-02-10 22:18:00,72.4,60.0,30.24,SE,141,14.9,15.5,67,0.00,,,1.01,TxWx,2013-02-11 03:18:00,
2013-02-10 22:19:00,72.4,60.0,30.24,SE,141,14.2,14.9,67,0.00,,,1.01,TxWx,2013-02-11 03:19:00,
2013-02-10 22:22:00,72.3,60.0,30.23,ESE,118,16.1,17.3,67,0.00,,,1.01,TxWx,2013-02-11 03:22:00,
2013-02-10 22:23:00,72.4,60.0,30.23,ESE,118,15.5,15.5,67,0.00,,,1.01,TxWx,2013-02-11 03:23:00,
2013-02-10 22:24:00,72.7,62.0,30.23,ESE,118,14.2,15.5,69,0.00,,,1.01,TxWx,2013-02-11 03:24:00,
2013-02-10 22:28:00,72.6,62.0,30.23,ESE,118,16.1,17.3,68,0.00,,,1.01,TxWx,2013-02-11 03:28:00,
2013-02-10 22:29:00,72.4,60.0,30.23,ESE,118,12.4,16.7,67,0.00,,,1.01,TxWx,2013-02-11 03:29:00,
2013-02-10 22:31:00,72.5,61.0,30.23,ESE,118,17.3,19.2,67,0.00,,,1.01,TxWx,2013-02-11 03:31:00,
2013-02-10 22:34:00,72.6,62.0,30.23,ESE,118,16.1,17.3,68,0.00,,,1.01,TxWx,2013-02-11 03:34:00,
2013-02-10 22:35:00,72.4,61.0,30.23,East,96,16.1,16.7,68,0.00,,,1.01,TxWx,2013-02-11 03:35:00,
2013-02-10 22:38:00,72.4,61.0,30.23,ESE,118,14.2,14.2,68,0.00,,,1.01,TxWx,2013-02-11 03:38:00,
2013-02-10 22:39:00,72.4,61.0,30.23,ESE,118,13.0,14.2,68,0.00,,,1.01,TxWx,2013-02-11 03:39:00,
2013-02-10 22:41:00,72.4,61.0,30.23,East,96,18.6,18.6,68,0.00,,,1.01,TxWx,2013-02-11 03:41:00,
2013-02-10 22:44:00,72.4,61.0,30.23,ESE,118,17.3,17.3,68,0.00,,,1.01,TxWx,2013-02-11 03:44:00,
2013-02-10 22:45:00,72.3,60.0,30.22,East,96,17.9,17.9,67,0.00,,,1.01,TxWx,2013-02-11 03:45:00,
2013-02-10 22:46:00,72.4,61.0,30.23,ESE,118,16.1,17.9,68,0.00,,,1.01,TxWx,2013-02-11 03:46:00,
2013-02-10 22:50:00,72.3,61.0,30.22,SE,141,15.5,15.5,68,0.00,,,1.01,TxWx,2013-02-11 03:50:00,
2013-02-10 22:51:00,72.4,60.0,30.22,ESE,118,14.9,14.9,67,0.00,,,1.01,TxWx,2013-02-11 03:51:00,
2013-02-10 22:55:00,72.3,61.0,30.22,SE,141,14.9,15.5,68,0.00,,,1.01,TxWx,2013-02-11 03:55:00,
2013-02-10 22:56:00,72.4,61.0,30.22,ESE,118,14.2,16.7,68,0.00,,,1.01,TxWx,2013-02-11 03:56:00,
2013-02-10 22:57:00,72.5,62.0,30.22,ESE,118,14.9,16.1,69,0.00,,,1.01,TxWx,2013-02-11 03:57:00,
2013-02-10 23:00:00,72.6,62.0,30.22,ESE,118,15.5,15.5,69,0.00,,,1.01,TxWx,2013-02-11 04:00:00,
2013-02-10 23:01:00,72.4,61.0,30.22,East,96,16.1,16.1,68,0.00,,,1.01,TxWx,2013-02-11 04:01:00,
2013-02-10 23:05:00,72.7,62.0,30.22,ESE,118,13.6,14.9,70,0.00,,,1.01,TxWx,2013-02-11 04:05:00,
2013-02-10 23:06:00,72.4,61.0,30.22,ESE,118,16.7,17.3,69,0.00,,,1.01,TxWx,2013-02-11 04:06:00,
2013-02-10 23:11:00,72.6,62.0,30.22,ESE,118,15.5,17.9,69,0.00,,,1.01,TxWx,2013-02-11 04:11:00,
2013-02-10 23:12:00,72.6,62.0,30.22,ESE,118,13.6,14.2,70,0.00,,,1.01,TxWx,2013-02-11 04:12:00,
2013-02-10 23:13:00,72.4,61.0,30.22,ESE,118,16.7,16.7,70,0.00,,,1.01,TxWx,2013-02-11 04:13:00,
2013-02-10 23:17:00,72.4,61.0,30.22,ESE,118,13.6,19.8,69,0.00,,,1.01,TxWx,2013-02-11 04:17:00,
2013-02-10 23:18:00,72.4,61.0,30.23,ESE,118,15.5,15.5,69,0.00,,,1.01,TxWx,2013-02-11 04:18:00,
2013-02-10 23:20:00,72.6,63.0,30.23,SE,141,13.6,15.5,70,0.00,,,1.01,TxWx,2013-02-11 04:20:00,
2013-02-10 23:22:00,72.6,63.0,30.22,ESE,118,17.3,17.3,71,0.00,,,1.01,TxWx,2013-02-11 04:22:00,
2013-02-10 23:23:00,72.6,63.0,30.23,ESE,118,16.7,17.3,70,0.00,,,1.01,TxWx,2013-02-11 04:23:00,
2013-02-10 23:26:00,72.7,63.0,30.23,ESE,118,12.4,13.0,70,0.00,,,1.01,TxWx,2013-02-11 04:26:00,
2013-02-10 23:27:00,72.3,62.0,30.23,ESE,118,14.2,16.1,70,0.00,,,1.01,TxWx,2013-02-11 04:27:00,
2013-02-10 23:29:00,72.3,61.0,30.22,ESE,118,12.4,13.6,68,0.00,,,1.01,TxWx,2013-02-11 04:29:00,
2013-02-10 23:32:00,72.8,63.0,30.22,SE,141,14.2,14.9,70,0.00,,,1.01,TxWx,2013-02-11 04:32:00,
2013-02-10 23:34:00,72.6,62.0,30.23,SE,141,13.0,13.6,69,0.00,,,1.01,TxWx,2013-02-11 04:34:00,
2013-02-10 23:39:00,72.4,61.0,30.22,SE,141,13.6,14.9,68,0.00,,,1.01,TxWx,2013-02-11 04:39:00,
2013-02-10 23:40:00,72.6,61.0,30.22,ESE,118,14.9,15.5,67,0.00,,,1.01,TxWx,2013-02-11 04:40:00,
2013-02-10 23:44:00,72.7,62.0,30.22,SE,141,12.4,14.9,69,0.00,,,1.01,TxWx,2013-02-11 04:44:00,
2013-02-10 23:46:00,72.6,62.0,30.22,SE,141,16.1,16.1,68,0.00,,,1.01,TxWx,2013-02-11 04:46:00,
2013-02-10 23:49:00,72.5,61.0,30.22,SE,141,15.5,16.1,69,0.00,,,1.01,TxWx,2013-02-11 04:49:00,
2013-02-10 23:50:00,72.6,62.0,30.22,ESE,118,12.4,14.2,68,0.00,,,1.01,TxWx,2013-02-11 04:50:00,
2013-02-10 23:51:00,72.8,62.0,30.22,SE,141,9.3,11.1,70,0.00,,,1.01,TxWx,2013-02-11 04:51:00,
2013-02-10 23:55:00,72.5,62.0,30.22,SE,141,15.5,15.5,69,0.00,,,1.01,TxWx,2013-02-11 04:55:00,
2013-02-10 23:56:00,72.6,62.0,30.22,ESE,118,14.9,14.9,69,0.00,,,1.01,TxWx,2013-02-11 04:56:00,